Time,TemperatureF,DewpointF,PressureIn,WindDirection,WindDirectionDegrees,WindSpeedMPH,WindSpeedGustMPH,Humidity,HourlyPrecipIn,Conditions,Clouds,dailyrainin,SolarRadiationWatts/m^2,SoftwareType,DateUTC
2013-01-12 00:00:00,40.5,40.0,30.16,SW,218,0.0,1.0,98,0.00,,SKC,0.05,0.00,VWS V14.01,2013-01-12 05:00:00,
2013-01-12 00:01:00,40.4,39.9,30.16,SW,218,0.0,1.0,98,0.00,,SKC,0.00,0.00,VWS V14.01,2013-01-12 05:01:00,
2013-01-12 00:05:00,40.3,39.8,30.16,SW,218,1.0,1.0,98,0.00,,SKC,0.00,0.00,VWS V14.01,2013-01-12 05:05:00,
2013-01-12 00:06:00,40.2,39.7,30.15,SW,218,0.0,1.0,98,0.00,,SKC,0.00,0.00,VWS V14.01,2013-01-12 05:06:00,
2013-01-12 00:07:00,40.2,39.7,30.15,SW,218,0.0,1.0,98,0.00,,SKC,0.00,0.00,VWS V14.01,2013-01-12 05:07:00,
2013-01-12 00:10:00,40.0,39.5,30.16,SW,218,0.0,1.0,98,0.00,,SKC,0.00,0.00,VWS V14.01,2013-01-12 05:10:00,
2013-01-12 00:12:00,40.0,39.5,30.16,SW,218,0.0,1.0,98,0.00,,SKC,0.00,0.00,VWS V14.01,2013-01-12 05:12:00,
2013-01-12 00:15:00,40.0,39.5,30.16,SW,218,0.0,1.0,98,0.00,,SKC,0.00,0.00,VWS V14.01,2013-01-12 05:15:00,
2013-01-12 00:17:00,40.0,39.5,30.16,SW,218,1.0,1.0,98,0.00,,SKC,0.00,0.00,VWS V14.01,2013-01-12 05:17:00,
2013-01-12 00:20:00,40.0,39.5,30.15,SW,218,0.0,1.0,98,0.00,,SKC,0.00,0.00,VWS V14.01,2013-01-12 05:20:00,
2013-01-12 00:22:00,40.0,39.5,30.15,SW,218,0.0,1.0,98,0.00,,SKC,0.00,0.00,VWS V14.01,2013-01-12 05:22:00,
2013-01-12 00:25:00,40.0,39.5,30.15,SW,218,0.0,1.0,98,0.00,,SKC,0.00,0.00,VWS V14.01,2013-01-12 05:25:00,
2013-01-12 00:26:00,40.0,39.5,30.15,SW,218,0.0,1.0,98,0.00,,SKC,0.00,0.00,VWS V14.01,2013-01-12 05:26:00,
2013-01-12 00:27:00,40.0,39.5,30.15,SW,218,0.0,1.0,98,0.00,,SKC,0.00,0.00,VWS V14.01,2013-01-12 05:27:00,
2013-01-12 00:28:00,40.0,39.5,30.15,SW,218,0.0,1.0,98,0.00,,SKC,0.00,0.00,VWS V14.01,2013-01-12 05:28:00,
2013-01-12 00:30:00,40.0,39.5,30.15,SW,218,0.0,1.0,98,0.00,,SKC,0.00,0.00,VWS V14.01,2013-01-12 05:30:00,
2013-01-12 00:31:00,40.0,39.5,30.15,SW,218,0.0,1.0,98,0.00,,SKC,0.00,0.00,VWS V14.01,2013-01-12 05:31:00,
2013-01-12 00:32:00,39.9,39.4,30.16,SW,218,0.0,0.0,98,0.00,,SKC,0.00,0.00,VWS V14.01,2013-01-12 05:32:00,
2013-01-12 00:33:00,39.9,39.4,30.16,SW,218,0.0,0.0,98,0.00,,SKC,0.00,0.00,VWS V14.01,2013-01-12 05:33:00,
2013-01-12 00:36:00,39.9,39.4,30.15,SW,218,0.0,0.0,98,0.00,,SKC,0.00,0.00,VWS V14.01,2013-01-12 05:36:00,
2013-01-12 00:38:00,39.9,39.4,30.16,SW,218,0.0,0.0,98,0.00,,SKC,0.00,0.00,VWS V14.01,2013-01-12 05:38:00,
2013-01-12 00:41:00,39.9,39.4,30.15,SW,218,1.0,2.0,98,0.00,,SKC,0.00,0.00,VWS V14.01,2013-01-12 05:41:00,
2013-01-12 00:43:00,39.8,39.3,30.15,SW,218,0.0,2.0,98,0.00,,SKC,0.00,0.00,VWS V14.01,2013-01-12 05:43:00,
2013-01-12 00:46:00,39.8,39.3,30.15,SW,218,0.0,2.0,98,0.00,,SKC,0.00,0.00,VWS V14.01,2013-01-12 05:46:00,
2013-01-12 00:48:00,39.8,39.3,30.15,SW,218,0.0,2.0,98,0.00,,SKC,0.00,0.00,VWS V14.01,2013-01-12 05:48:00,
2013-01-12 00:51:00,39.7,39.2,30.15,SW,218,0.0,2.0,98,0.00,,SKC,0.00,0.00,VWS V14.01,2013-01-12 05:51:00,
2013-01-12 00:53:00,39.7,39.2,30.15,SW,218,0.0,2.0,98,0.00,,SKC,0.00,0.00,VWS V14.01,2013-01-12 05:53:00,
2013-01-12 00:54:00,39.7,39.2,30.16,SW,218,0.0,2.0,98,0.00,,SKC,0.00,0.00,VWS V14.01,2013-01-12 05:54:00,
2013-01-12 00:56:00,39.7,39.2,30.15,SW,218,0.0,2.0,98,0.00,,SKC,0.00,0.00,VWS V14.01,2013-01-12 05:56:00,
2013-01-12 00:57:00,39.7,39.2,30.15,SW,218,0.0,2.0,98,0.00,,SKC,0.00,0.00,VWS V14.01,2013-01-12 05:57:00,
2013-01-12 00:58:00,39.7,39.2,30.15,SW,218,0.0,2.0,98,0.00,,SKC,0.00,0.00,VWS V14.01,2013-01-12 05:58:00,
2013-01-12 00:59:00,39.7,39.2,30.15,SW,218,0.0,2.0,98,0.00,,SKC,0.00,0.00,VWS V14.01,2013-01-12 05:59:00,
2013-01-12 01:01:00,39.7,39.2,30.16,SW,218,0.0,0.0,98,0.00,,SKC,0.00,0.00,VWS V14.01,2013-01-12 06:01:00,
2013-01-12 01:02:00,39.7,39.2,30.15,SW,218,0.0,0.0,98,0.00,,SKC,0.00,0.00,VWS V14.01,2013-01-12 06:02:00,
2013-01-12 01:03:00,39.7,39.2,30.15,SW,218,0.0,0.0,98,0.00,,SKC,0.00,0.00,VWS V14.01,2013-01-12 06:03:00,
2013-01-12 01:04:00,39.7,39.2,30.15,SW,218,0.0,0.0,98,0.00,,SKC,0.00,0.00,VWS V14.01,2013-01-12 06:04:00,
2013-01-12 01:07:00,39.7,39.2,30.15,SW,218,0.0,0.0,98,0.00,,SKC,0.00,0.00,VWS V14.01,2013-01-12 06:07:00,
2013-01-12 01:08:00,39.7,39.2,30.15,SW,218,0.0,0.0,98,0.00,,SKC,0.00,0.00,VWS V14.01,2013-01-12 06:08:00,
2013-01-12 01:09:00,39.7,39.2,30.15,SW,218,0.0,0.0,98,0.00,,SKC,0.00,0.00,VWS V14.01,2013-01-12 06:09:00,
2013-01-12 01:12:00,39.7,39.2,30.15,SW,218,0.0,0.0,98,0.00,,SKC,0.00,0.00,VWS V14.01,2013-01-12 06:12:00,
2013-01-12 01:13:00,39.7,39.2,30.15,SW,218,0.0,0.0,98,0.00,,SKC,0.00,0.00,VWS V14.01,2013-01-12 06:13:00,
2013-01-12 01:14:00,39.7,39.2,30.16,SW,218,0.0,0.0,98,0.00,,SKC,0.00,0.00,VWS V14.01,2013-01-12 06:14:00,
2013-01-12 01:17:00,39.7,39.2,30.16,SW,218,0.0,0.0,98,0.01,,SKC,0.01,0.00,VWS V14.01,2013-01-12 06:17:00,
2013-01-12 01:19:00,39.7,39.2,30.16,SW,218,0.0,0.0,98,0.01,,SKC,0.01,0.00,VWS V14.01,2013-01-12 06:19:00,
2013-01-12 01:22:00,39.6,39.1,30.15,SW,218,0.0,1.0,98,0.01,,SKC,0.01,0.00,VWS V14.01,2013-01-12 06:22:00,
2013-01-12 01:23:00,39.6,39.1,30.15,SW,218,0.0,1.0,98,0.01,,SKC,0.01,0.00,VWS V14.01,2013-01-12 06:23:00,
2013-01-12 01:24:00,39.6,39.1,30.15,SW,218,0.0,1.0,98,0.01,,SKC,0.01,0.00,VWS V14.01,2013-01-12 06:24:00,
2013-01-12 01:27:00,39.7,39.2,30.16,SW,218,0.0,1.0,98,0.01,,SKC,0.01,0.00,VWS V14.01,2013-01-12 06:27:00,
2013-01-12 01:28:00,39.6,39.1,30.16,SW,218,0.0,1.0,98,0.01,,SKC,0.01,0.00,VWS V14.01,2013-01-12 06:28:00,
2013-01-12 01:29:00,39.6,39.1,30.16,SW,218,0.0,1.0,98,0.01,,SKC,0.01,0.00,VWS V14.01,2013-01-12 06:29:00,
2013-01-12 01:33:00,39.6,39.1,30.15,SW,218,0.0,0.0,98,0.01,,SKC,0.01,0.00,VWS V14.01,2013-01-12 06:33:00,
2013-01-12 01:34:00,39.6,39.1,30.15,SW,218,0.0,0.0,98,0.01,,SKC,0.01,0.00,VWS V14.01,2013-01-12 06:34:00,
2013-01-12 01:38:00,39.6,39.1,30.15,SW,218,0.0,0.0,98,0.01,,SKC,0.01,0.00,VWS V14.01,2013-01-12 06:38:00,
2013-01-12 01:39:00,39.6,39.1,30.15,SW,218,0.0,0.0,98,0.01,,SKC,0.01,0.00,VWS V14.01,2013-01-12 06:39:00,
2013-01-12 01:43:00,39.6,39.1,30.15,SW,218,0.0,0.0,98,0.01,,SKC,0.01,0.00,VWS V14.01,2013-01-12 06:43:00,
2013-01-12 01:44:00,39.6,39.1,30.15,SW,218,0.0,0.0,98,0.01,,SKC,0.01,0.00,VWS V14.01,2013-01-12 06:44:00,
2013-01-12 01:48:00,39.6,39.1,30.15,SW,218,0.0,0.0,98,0.01,,SKC,0.01,0.00,VWS V14.01,2013-01-12 06:48:00,
2013-01-12 01:49:00,39.6,39.1,30.15,SW,218,0.0,0.0,98,0.01,,SKC,0.01,0.00,VWS V14.01,2013-01-12 06:49:00,
2013-01-12 01:53:00,39.6,39.1,30.15,SW,218,0.0,0.0,98,0.01,,SKC,0.01,0.00,VWS V14.01,2013-01-12 06:53:00,
2013-01-12 01:54:00,39.6,39.1,30.15,SW,218,0.0,0.0,98,0.01,,SKC,0.01,0.00,VWS V14.01,2013-01-12 06:54:00,
2013-01-12 01:55:00,39.6,39.1,30.15,SW,218,0.0,0.0,98,0.01,,SKC,0.01,0.00,VWS V14.01,2013-01-12 06:55:00,
2013-01-12 01:58:00,39.6,39.1,30.15,SW,218,0.0,0.0,98,0.01,,SKC,0.01,0.00,VWS V14.01,2013-01-12 06:58:00,
2013-01-12 01:59:00,39.6,39.1,30.16,SW,218,0.0,0.0,98,0.01,,SKC,0.01,0.00,VWS V14.01,2013-01-12 06:59:00,
2013-01-12 02:00:00,39.6,39.1,30.16,SW,218,0.0,0.0,98,0.01,,SKC,0.01,0.00,VWS V14.01,2013-01-12 07:00:00,
2013-01-12 02:03:00,39.5,39.0,30.15,SW,218,0.0,0.0,98,0.01,,SKC,0.01,0.00,VWS V14.01,2013-01-12 07:03:00,
2013-01-12 02:04:00,39.5,39.0,30.15,SW,218,0.0,0.0,98,0.01,,SKC,0.01,0.00,VWS V14.01,2013-01-12 07:04:00,
2013-01-12 02:05:00,39.5,39.0,30.15,SW,218,0.0,0.0,98,0.01,,SKC,0.01,0.00,VWS V14.01,2013-01-12 07:05:00,
2013-01-12 02:08:00,39.6,39.1,30.15,SW,218,0.0,0.0,98,0.01,,SKC,0.01,0.00,VWS V14.01,2013-01-12 07:08:00,
2013-01-12 02:09:00,39.6,39.1,30.16,SW,218,0.0,0.0,98,0.01,,SKC,0.01,0.00,VWS V14.01,2013-01-12 07:09:00,
2013-01-12 02:10:00,39.6,39.1,30.16,SW,218,0.0,0.0,98,0.01,,SKC,0.01,0.00,VWS V14.01,2013-01-12 07:10:00,
2013-01-12 02:14:00,39.6,39.1,30.15,SW,218,0.0,1.0,98,0.01,,SKC,0.01,0.00,VWS V14.01,2013-01-12 07:14:00,
2013-01-12 02:15:00,39.7,39.2,30.15,SW,218,0.0,1.0,98,0.01,,SKC,0.01,0.00,VWS V14.01,2013-01-12 07:15:00,
2013-01-12 02:19:00,39.8,39.3,30.16,SW,218,0.0,1.0,98,0.01,,SKC,0.01,0.00,VWS V14.01,2013-01-12 07:19:00,
2013-01-12 02:20:00,39.9,39.4,30.16,SW,218,0.0,1.0,98,0.01,,SKC,0.01,0.00,VWS V14.01,2013-01-12 07:20:00,
2013-01-12 02:21:00,39.9,39.4,30.16,SW,218,0.0,1.0,98,0.01,,SKC,0.01,0.00,VWS V14.01,2013-01-12 07:21:00,
2013-01-12 02:24:00,40.0,39.5,30.16,SW,218,0.0,1.0,98,0.01,,SKC,0.01,0.00,VWS V14.01,2013-01-12 07:24:00,
2013-01-12 02:25:00,40.0,39.5,30.16,SW,218,0.0,1.0,98,0.01,,SKC,0.01,0.00,VWS V14.01,2013-01-12 07:25:00,
2013-01-12 02:26:00,40.0,39.5,30.16,SW,218,0.0,1.0,98,0.01,,SKC,0.01,0.00,VWS V14.01,2013-01-12 07:26:00,
2013-01-12 02:29:00,40.0,39.5,30.16,SW,218,0.0,1.0,98,0.01,,SKC,0.01,0.00,VWS V14.01,2013-01-12 07:29:00,
2013-01-12 02:30:00,39.9,39.4,30.16,SW,218,0.0,1.0,98,0.01,,SKC,0.01,0.00,VWS V14.01,2013-01-12 07:30:00,
2013-01-12 02:31:00,39.8,39.3,30.16,SW,218,0.0,0.0,98,0.00,,SKC,0.01,0.00,VWS V14.01,2013-01-12 07:31:00,
2013-01-12 02:34:00,39.8,39.3,30.16,SW,218,0.0,0.0,98,0.00,,SKC,0.01,0.00,VWS V14.01,2013-01-12 07:34:00,
2013-01-12 02:35:00,39.7,39.2,30.16,SW,218,0.0,0.0,98,0.00,,SKC,0.01,0.00,VWS V14.01,2013-01-12 07:35:00,
2013-01-12 02:36:00,39.7,39.2,30.15,SW,218,0.0,0.0,98,0.00,,SKC,0.01,0.00,VWS V14.01,2013-01-12 07:36:00,
2013-01-12 02:40:00,39.8,39.3,30.15,SW,218,0.0,1.0,98,0.00,,SKC,0.01,0.00,VWS V14.01,2013-01-12 07:40:00,
2013-01-12 02:41:00,39.8,39.3,30.16,SW,218,0.0,1.0,98,0.00,,SKC,0.01,0.00,VWS V14.01,2013-01-12 07:41:00,
2013-01-12 02:45:00,39.8,39.3,30.15,SW,218,0.0,1.0,98,0.00,,SKC,0.01,0.00,VWS V14.01,2013-01-12 07:45:00,
2013-01-12 02:46:00,39.8,39.3,30.15,SW,218,0.0,1.0,98,0.00,,SKC,0.01,0.00,VWS V14.01,2013-01-12 07:46:00,
2013-01-12 02:47:00,39.8,39.3,30.15,SW,218,0.0,1.0,98,0.00,,SKC,0.01,0.00,VWS V14.01,2013-01-12 07:47:00,
2013-01-12 02:50:00,39.8,39.3,30.15,SW,218,0.0,1.0,98,0.00,,SKC,0.01,0.00,VWS V14.01,2013-01-12 07:50:00,
2013-01-12 02:51:00,39.8,39.3,30.15,SW,218,0.0,1.0,98,0.00,,SKC,0.01,0.00,VWS V14.01,2013-01-12 07:51:00,
2013-01-12 02:52:00,39.8,39.3,30.15,SW,218,0.0,1.0,98,0.00,,SKC,0.01,0.00,VWS V14.01,2013-01-12 07:52:00,
2013-01-12 02:55:00,39.8,39.3,30.15,SW,218,0.0,1.0,98,0.00,,SKC,0.01,0.00,VWS V14.01,2013-01-12 07:55:00,
2013-01-12 02:56:00,39.8,39.3,30.15,SW,218,0.0,1.0,98,0.00,,SKC,0.01,0.00,VWS V14.01,2013-01-12 07:56:00,
2013-01-12 02:57:00,39.8,39.3,30.15,SW,218,0.0,1.0,98,0.00,,SKC,0.01,0.00,VWS V14.01,2013-01-12 07:57:00,
2013-01-12 03:00:00,39.8,39.3,30.15,SW,218,0.0,1.0,98,0.00,,SKC,0.01,0.00,VWS V14.01,2013-01-12 08:00:00,
2013-01-12 03:01:00,39.8,39.3,30.15,SW,218,0.0,0.0,98,0.00,,SKC,0.01,0.00,VWS V14.01,2013-01-12 08:01:00,
2013-01-12 03:02:00,39.8,39.3,30.15,SW,218,0.0,0.0,98,0.00,,SKC,0.01,0.00,VWS V14.01,2013-01-12 08:02:00,
2013-01-12 03:05:00,39.8,39.3,30.15,SW,218,0.0,0.0,98,0.00,,SKC,0.01,0.00,VWS V14.01,2013-01-12 08:05:00,
2013-01-12 03:06:00,39.8,39.3,30.15,SW,218,0.0,0.0,98,0.00,,SKC,0.01,0.00,VWS V14.01,2013-01-12 08:06:00,
2013-01-12 03:07:00,39.8,39.3,30.15,SW,218,0.0,0.0,98,0.00,,SKC,0.01,0.00,VWS V14.01,2013-01-12 08:07:00,
2013-01-12 03:11:00,39.8,39.3,30.15,SW,218,0.0,0.0,98,0.00,,SKC,0.01,0.00,VWS V14.01,2013-01-12 08:11:00,
2013-01-12 03:12:00,39.8,39.3,30.15,SW,218,0.0,0.0,98,0.00,,SKC,0.01,0.00,VWS V14.01,2013-01-12 08:12:00,
2013-01-12 03:16:00,39.7,39.2,30.15,SW,218,0.0,0.0,98,0.00,,SKC,0.01,0.00,VWS V14.01,2013-01-12 08:16:00,
2013-01-12 03:17:00,39.7,39.2,30.15,SW,218,0.0,0.0,98,0.00,,SKC,0.01,0.00,VWS V14.01,2013-01-12 08:17:00,
2013-01-12 03:21:00,39.7,39.2,30.15,SW,218,0.0,0.0,98,0.00,,SKC,0.01,0.00,VWS V14.01,2013-01-12 08:21:00,
2013-01-12 03:22:00,39.8,39.3,30.15,SW,218,0.0,0.0,98,0.00,,SKC,0.01,0.00,VWS V14.01,2013-01-12 08:22:00,
2013-01-12 03:26:00,39.7,39.2,30.15,SW,218,0.0,0.0,98,0.00,,SKC,0.01,0.00,VWS V14.01,2013-01-12 08:26:00,
2013-01-12 03:27:00,39.8,39.3,30.15,SW,218,0.0,0.0,98,0.00,,SKC,0.01,0.00,VWS V14.01,2013-01-12 08:27:00,
2013-01-12 03:31:00,39.8,39.5,30.15,SW,218,0.0,0.0,99,0.00,,SKC,0.01,0.00,VWS V14.01,2013-01-12 08:31:00,
2013-01-12 03:32:00,39.8,39.5,30.14,SW,218,0.0,0.0,99,0.00,,SKC,0.01,0.00,VWS V14.01,2013-01-12 08:32:00,
2013-01-12 03:33:00,39.8,39.5,30.14,SW,218,0.0,0.0,99,0.00,,SKC,0.01,0.00,VWS V14.01,2013-01-12 08:33:00,
2013-01-12 03:36:00,39.8,39.5,30.14,SW,218,0.0,0.0,99,0.00,,SKC,0.01,0.00,VWS V14.01,2013-01-12 08:36:00,
2013-01-12 03:37:00,39.8,39.5,30.14,SW,218,0.0,0.0,99,0.00,,SKC,0.01,0.00,VWS V14.01,2013-01-12 08:37:00,
2013-01-12 03:38:00,39.8,39.5,30.14,SW,218,0.0,0.0,99,0.00,,SKC,0.01,0.00,VWS V14.01,2013-01-12 08:38:00,
2013-01-12 03:41:00,39.9,39.4,30.14,SW,218,0.0,0.0,98,0.00,,SKC,0.01,0.00,VWS V14.01,2013-01-12 08:41:00,
2013-01-12 03:42:00,39.9,39.6,30.14,SW,218,0.0,0.0,99,0.00,,SKC,0.01,0.00,VWS V14.01,2013-01-12 08:42:00,
2013-01-12 03:43:00,39.8,39.5,30.14,SW,218,0.0,0.0,99,0.00,,SKC,0.01,0.00,VWS V14.01,2013-01-12 08:43:00,
2013-01-12 03:46:00,39.8,39.3,30.14,SW,218,0.0,0.0,98,0.00,,SKC,0.01,0.00,VWS V14.01,2013-01-12 08:46:00,
2013-01-12 03:47:00,39.8,39.3,30.14,SW,218,0.0,0.0,98,0.00,,SKC,0.01,0.00,VWS V14.01,2013-01-12 08:47:00,
2013-01-12 03:48:00,39.8,39.3,30.14,SW,218,0.0,0.0,98,0.00,,SKC,0.01,0.00,VWS V14.01,2013-01-12 08:48:00,
2013-01-12 03:52:00,39.7,39.2,30.14,SW,218,0.0,1.0,98,0.00,,SKC,0.01,0.00,VWS V14.01,2013-01-12 08:52:00,
2013-01-12 03:53:00,39.7,39.2,30.14,SW,218,0.0,1.0,98,0.00,,SKC,0.01,0.00,VWS V14.01,2013-01-12 08:53:00,
2013-01-12 03:57:00,39.5,39.0,30.15,SW,218,1.0,2.0,98,0.00,,SKC,0.01,0.00,VWS V14.01,2013-01-12 08:57:00,
2013-01-12 03:58:00,39.5,39.0,30.15,SW,218,0.0,2.0,98,0.00,,SKC,0.01,0.00,VWS V14.01,2013-01-12 08:58:00,
2013-01-12 04:02:00,39.4,38.9,30.15,SW,218,0.0,0.0,98,0.00,,SKC,0.01,0.00,VWS V14.01,2013-01-12 09:02:00,
2013-01-12 04:03:00,39.4,38.9,30.15,SW,218,0.0,0.0,98,0.00,,SKC,0.01,0.00,VWS V14.01,2013-01-12 09:03:00,
2013-01-12 04:04:00,39.4,38.9,30.15,SW,218,0.0,0.0,98,0.00,,SKC,0.01,0.00,VWS V14.01,2013-01-12 09:04:00,
2013-01-12 04:07:00,39.5,39.0,30.15,SW,218,0.0,0.0,98,0.00,,SKC,0.01,0.00,VWS V14.01,2013-01-12 09:07:00,
2013-01-12 04:08:00,39.5,39.0,30.15,SW,218,0.0,0.0,98,0.00,,SKC,0.01,0.00,VWS V14.01,2013-01-12 09:08:00,
2013-01-12 04:09:00,39.5,39.0,30.14,SW,218,0.0,0.0,98,0.00,,SKC,0.01,0.00,VWS V14.01,2013-01-12 09:09:00,
2013-01-12 04:13:00,39.5,39.0,30.15,SW,218,0.0,0.0,98,0.00,,SKC,0.01,0.00,VWS V14.01,2013-01-12 09:13:00,
2013-01-12 04:14:00,39.6,39.1,30.15,SW,218,0.0,0.0,98,0.00,,SKC,0.01,0.00,VWS V14.01,2013-01-12 09:14:00,
2013-01-12 04:18:00,39.7,39.4,30.14,SW,218,0.0,0.0,99,0.00,,SKC,0.01,0.00,VWS V14.01,2013-01-12 09:18:00,
2013-01-12 04:19:00,39.7,39.4,30.14,SW,218,0.0,0.0,99,0.00,,SKC,0.01,0.00,VWS V14.01,2013-01-12 09:19:00,
2013-01-12 04:20:00,39.8,39.3,30.14,SW,218,0.0,0.0,98,0.00,,SKC,0.01,0.00,VWS V14.01,2013-01-12 09:20:00,
2013-01-12 04:23:00,40.0,39.7,30.14,SW,218,0.0,0.0,99,0.00,,SKC,0.01,0.00,VWS V14.01,2013-01-12 09:23:00,
2013-01-12 04:24:00,40.0,39.7,30.14,SW,218,0.0,0.0,99,0.00,,SKC,0.01,0.00,VWS V14.01,2013-01-12 09:24:00,
2013-01-12 04:25:00,40.0,39.7,30.14,SW,218,0.0,0.0,99,0.00,,SKC,0.01,0.00,VWS V14.01,2013-01-12 09:25:00,
2013-01-12 04:29:00,40.0,39.7,30.14,SW,218,0.0,0.0,99,0.00,,SKC,0.01,0.00,VWS V14.01,2013-01-12 09:29:00,
2013-01-12 04:30:00,40.0,39.7,30.14,SW,218,0.0,0.0,99,0.00,,SKC,0.01,0.00,VWS V14.01,2013-01-12 09:30:00,
2013-01-12 04:34:00,40.0,39.5,30.14,SW,218,0.0,0.0,98,0.00,,SKC,0.01,0.00,VWS V14.01,2013-01-12 09:34:00,
2013-01-12 04:35:00,40.0,39.5,30.14,SW,218,0.0,0.0,98,0.00,,SKC,0.01,0.00,VWS V14.01,2013-01-12 09:35:00,
2013-01-12 04:39:00,40.3,40.0,30.14,SW,218,0.0,1.0,99,0.00,,SKC,0.01,0.00,VWS V14.01,2013-01-12 09:39:00,
2013-01-12 04:40:00,40.3,40.0,30.14,SW,218,0.0,1.0,99,0.00,,SKC,0.01,0.00,VWS V14.01,2013-01-12 09:40:00,
2013-01-12 04:44:00,40.3,40.0,30.14,SW,218,0.0,1.0,99,0.00,,SKC,0.01,0.00,VWS V14.01,2013-01-12 09:44:00,
2013-01-12 04:45:00,40.3,40.0,30.14,SW,218,0.0,1.0,99,0.00,,SKC,0.01,0.00,VWS V14.01,2013-01-12 09:45:00,
2013-01-12 04:46:00,40.4,40.1,30.14,SW,218,0.0,1.0,99,0.00,,SKC,0.01,0.00,VWS V14.01,2013-01-12 09:46:00,
2013-01-12 04:49:00,40.4,40.1,30.14,SW,218,0.0,1.0,99,0.00,,SKC,0.01,0.00,VWS V14.01,2013-01-12 09:49:00,
2013-01-12 04:50:00,40.4,40.1,30.14,SW,218,0.0,1.0,99,0.00,,SKC,0.01,0.00,VWS V14.01,2013-01-12 09:50:00,
2013-01-12 04:51:00,40.4,40.1,30.14,SW,218,0.0,1.0,99,0.00,,SKC,0.01,0.00,VWS V14.01,2013-01-12 09:51:00,
2013-01-12 04:54:00,40.4,40.1,30.14,SW,218,1.0,1.0,99,0.00,,SKC,0.01,0.00,VWS V14.01,2013-01-12 09:54:00,
2013-01-12 04:55:00,40.4,40.1,30.14,SW,218,0.0,1.0,99,0.00,,SKC,0.01,0.00,VWS V14.01,2013-01-12 09:55:00,
2013-01-12 04:56:00,40.4,40.1,30.14,SW,218,0.0,1.0,99,0.00,,SKC,0.01,0.00,VWS V14.01,2013-01-12 09:56:00,
2013-01-12 04:59:00,40.4,40.1,30.13,SW,218,0.0,1.0,99,0.00,,SKC,0.01,0.00,VWS V14.01,2013-01-12 09:59:00,
2013-01-12 05:00:00,40.4,40.1,30.13,SW,218,0.0,1.0,99,0.00,,SKC,0.01,0.00,VWS V14.01,2013-01-12 10:00:00,
2013-01-12 05:01:00,40.4,40.1,30.14,SW,218,0.0,0.0,99,0.00,,SKC,0.01,0.00,VWS V14.01,2013-01-12 10:01:00,
2013-01-12 05:04:00,40.5,40.2,30.14,SW,218,1.0,3.0,99,0.00,,SKC,0.01,0.00,VWS V14.01,2013-01-12 10:04:00,
2013-01-12 05:05:00,40.5,40.2,30.14,SW,218,0.0,3.0,99,0.00,,SKC,0.01,0.00,VWS V14.01,2013-01-12 10:05:00,
2013-01-12 05:06:00,40.4,40.1,30.14,SW,218,0.0,3.0,99,0.00,,SKC,0.01,0.00,VWS V14.01,2013-01-12 10:06:00,
2013-01-12 05:10:00,40.5,40.2,30.14,SW,218,1.0,3.0,99,0.00,,SKC,0.01,0.00,VWS V14.01,2013-01-12 10:10:00,
2013-01-12 05:11:00,40.5,40.2,30.14,SW,218,0.0,3.0,99,0.00,,SKC,0.01,0.00,VWS V14.01,2013-01-12 10:11:00,
2013-01-12 05:15:00,40.6,40.3,30.14,SW,218,0.0,3.0,99,0.00,,SKC,0.01,0.00,VWS V14.01,2013-01-12 10:15:00,
2013-01-12 05:16:00,40.7,40.4,30.14,SW,218,0.0,3.0,99,0.00,,SKC,0.01,0.00,VWS V14.01,2013-01-12 10:16:00,
2013-01-12 05:20:00,40.7,40.4,30.14,SW,218,0.0,3.0,99,0.00,,SKC,0.01,0.00,VWS V14.01,2013-01-12 10:20:00,
2013-01-12 05:21:00,40.7,40.4,30.14,SW,218,0.0,3.0,99,0.00,,SKC,0.01,0.00,VWS V14.01,2013-01-12 10:21:00,
2013-01-12 05:25:00,40.9,40.6,30.14,SW,218,0.0,3.0,99,0.00,,SKC,0.01,0.00,VWS V14.01,2013-01-12 10:25:00,
2013-01-12 05:26:00,40.9,40.6,30.14,SW,218,0.0,3.0,99,0.00,,SKC,0.01,0.00,VWS V14.01,2013-01-12 10:26:00,
2013-01-12 05:27:00,40.9,40.6,30.14,SW,218,0.0,3.0,99,0.00,,SKC,0.01,0.00,VWS V14.01,2013-01-12 10:27:00,
2013-01-12 05:30:00,41.0,40.7,30.14,SW,218,0.0,3.0,99,0.00,,SKC,0.01,0.00,VWS V14.01,2013-01-12 10:30:00,
2013-01-12 05:31:00,41.1,40.8,30.14,SW,218,0.0,3.0,99,0.00,,SKC,0.01,0.00,VWS V14.01,2013-01-12 10:31:00,
2013-01-12 05:32:00,41.1,40.8,30.14,SW,218,0.0,0.0,99,0.00,,SKC,0.01,0.00,VWS V14.01,2013-01-12 10:32:00,
2013-01-12 05:36:00,41.2,40.9,30.14,SW,218,0.0,1.0,99,0.00,,SKC,0.01,0.00,VWS V14.01,2013-01-12 10:36:00,
2013-01-12 05:37:00,41.2,40.9,30.14,SW,218,0.0,1.0,99,0.00,,SKC,0.01,0.00,VWS V14.01,2013-01-12 10:37:00,
2013-01-12 05:41:00,41.4,41.1,30.14,SW,218,0.0,1.0,99,0.00,,SKC,0.01,0.00,VWS V14.01,2013-01-12 10:41:00,
2013-01-12 05:42:00,41.4,41.1,30.14,SW,218,0.0,1.0,99,0.00,,SKC,0.01,0.00,VWS V14.01,2013-01-12 10:42:00,
2013-01-12 05:46:00,41.3,41.0,30.14,SW,218,0.0,2.0,99,0.00,,SKC,0.01,0.00,VWS V14.01,2013-01-12 10:46:00,
2013-01-12 05:47:00,41.3,41.0,30.14,SW,218,0.0,2.0,99,0.00,,SKC,0.01,0.00,VWS V14.01,2013-01-12 10:47:00,
2013-01-12 05:51:00,41.5,41.2,30.14,SW,218,0.0,2.0,99,0.00,,SKC,0.01,0.00,VWS V14.01,2013-01-12 10:51:00,
2013-01-12 05:52:00,41.6,41.3,30.14,SW,218,0.0,2.0,99,0.00,,SKC,0.01,0.00,VWS V14.01,2013-01-12 10:52:00,
2013-01-12 05:56:00,41.9,41.6,30.14,SW,218,1.0,2.0,99,0.00,,SKC,0.01,0.00,VWS V14.01,2013-01-12 10:56:00,
2013-01-12 05:57:00,42.0,41.7,30.14,SW,218,2.0,3.0,99,0.00,,SKC,0.01,0.00,VWS V14.01,2013-01-12 10:57:00,
2013-01-12 06:02:00,42.5,42.2,30.15,SW,218,1.0,1.0,99,0.00,,SKC,0.01,0.00,VWS V14.01,2013-01-12 11:02:00,
2013-01-12 06:03:00,42.5,42.2,30.15,SW,218,1.0,2.0,99,0.00,,SKC,0.01,0.00,VWS V14.01,2013-01-12 11:03:00,
2013-01-12 06:07:00,42.8,42.5,30.15,SW,218,0.0,3.0,99,0.00,,SKC,0.01,0.00,VWS V14.01,2013-01-12 11:07:00,
2013-01-12 06:08:00,42.8,42.5,30.14,SW,218,0.0,3.0,99,0.00,,SKC,0.01,0.00,VWS V14.01,2013-01-12 11:08:00,
2013-01-12 06:11:00,42.9,42.6,30.15,SW,218,0.0,3.0,99,0.00,,SKC,0.01,0.00,VWS V14.01,2013-01-12 11:11:00,
2013-01-12 06:12:00,42.9,42.6,30.15,SW,218,2.0,3.0,99,0.00,,SKC,0.01,0.00,VWS V14.01,2013-01-12 11:12:00,
2013-01-12 06:13:00,42.9,42.6,30.15,SW,218,1.0,3.0,99,0.00,,SKC,0.01,0.00,VWS V14.01,2013-01-12 11:13:00,
2013-01-12 06:17:00,42.9,42.6,30.15,SW,218,0.0,3.0,99,0.00,,SKC,0.01,0.00,VWS V14.01,2013-01-12 11:17:00,
2013-01-12 06:18:00,42.9,42.6,30.15,SW,218,0.0,3.0,99,0.00,,SKC,0.01,0.00,VWS V14.01,2013-01-12 11:18:00,
2013-01-12 06:22:00,42.9,42.6,30.15,SW,218,2.0,3.0,99,0.00,,SKC,0.01,0.00,VWS V14.01,2013-01-12 11:22:00,
2013-01-12 06:23:00,42.9,42.6,30.15,SW,218,0.0,3.0,99,0.00,,SKC,0.01,0.00,VWS V14.01,2013-01-12 11:23:00,
2013-01-12 06:27:00,43.0,42.7,30.15,SW,218,0.0,3.0,99,0.00,,SKC,0.01,0.00,VWS V14.01,2013-01-12 11:27:00,
2013-01-12 06:28:00,43.1,42.8,30.15,SW,218,0.0,3.0,99,0.00,,SKC,0.01,0.00,VWS V14.01,2013-01-12 11:28:00,
2013-01-12 06:29:00,43.1,42.8,30.15,SW,218,0.0,3.0,99,0.00,,SKC,0.01,0.00,VWS V14.01,2013-01-12 11:29:00,
2013-01-12 06:32:00,43.2,42.9,30.15,SW,218,2.0,3.0,99,0.00,,SKC,0.01,0.00,VWS V14.01,2013-01-12 11:32:00,
2013-01-12 06:33:00,43.3,43.0,30.15,SW,218,0.0,3.0,99,0.00,,SKC,0.01,0.00,VWS V14.01,2013-01-12 11:33:00,
2013-01-12 06:34:00,43.3,43.0,30.15,SW,218,0.0,3.0,99,0.00,,SKC,0.01,0.00,VWS V14.01,2013-01-12 11:34:00,
2013-01-12 06:37:00,43.4,43.1,30.15,SW,218,0.0,3.0,99,0.00,,SKC,0.01,0.00,VWS V14.01,2013-01-12 11:37:00,
2013-01-12 06:38:00,43.4,43.1,30.15,SW,218,0.0,3.0,99,0.00,,SKC,0.01,0.00,VWS V14.01,2013-01-12 11:38:00,
2013-01-12 06:39:00,43.4,43.1,30.15,SW,218,0.0,3.0,99,0.00,,SKC,0.01,0.00,VWS V14.01,2013-01-12 11:39:00,
2013-01-12 06:42:00,43.4,43.1,30.15,SW,218,0.0,3.0,99,0.00,,SKC,0.01,0.00,VWS V14.01,2013-01-12 11:42:00,
2013-01-12 06:43:00,43.4,43.1,30.15,SW,218,0.0,3.0,99,0.00,,SKC,0.01,0.00,VWS V14.01,2013-01-12 11:43:00,
2013-01-12 06:44:00,43.4,43.1,30.15,SW,218,0.0,3.0,99,0.00,,SKC,0.01,0.00,VWS V14.01,2013-01-12 11:44:00,
2013-01-12 06:47:00,43.4,43.1,30.15,SW,218,0.0,3.0,99,0.00,,SKC,0.01,0.00,VWS V14.01,2013-01-12 11:47:00,
2013-01-12 06:49:00,43.4,43.1,30.15,SW,218,0.0,3.0,99,0.00,,SKC,0.01,0.00,VWS V14.01,2013-01-12 11:49:00,
2013-01-12 06:52:00,43.5,43.2,30.15,SW,218,0.0,3.0,99,0.00,,SKC,0.01,0.00,VWS V14.01,2013-01-12 11:52:00,
2013-01-12 06:54:00,43.5,43.2,30.15,SW,218,0.0,3.0,99,0.00,,SKC,0.01,0.00,VWS V14.01,2013-01-12 11:54:00,
2013-01-12 06:58:00,43.6,43.3,30.15,SW,218,0.0,3.0,99,0.00,,SKC,0.01,0.00,VWS V14.01,2013-01-12 11:58:00,
2013-01-12 06:59:00,43.6,43.3,30.15,SW,218,0.0,3.0,99,0.00,,SKC,0.01,0.00,VWS V14.01,2013-01-12 11:59:00,
2013-01-12 07:03:00,43.8,43.5,30.15,SW,218,0.0,0.0,99,0.00,,SKC,0.01,0.00,VWS V14.01,2013-01-12 12:03:00,
2013-01-12 07:04:00,43.8,43.5,30.15,SW,218,0.0,0.0,99,0.00,,SKC,0.01,0.00,VWS V14.01,2013-01-12 12:04:00,
2013-01-12 07:05:00,43.8,43.5,30.15,SW,218,0.0,0.0,99,0.00,,SKC,0.01,0.00,VWS V14.01,2013-01-12 12:05:00,
2013-01-12 07:08:00,43.8,43.5,30.15,SW,218,0.0,0.0,99,0.00,,SKC,0.01,0.00,VWS V14.01,2013-01-12 12:08:00,
2013-01-12 07:09:00,43.8,43.5,30.15,SW,218,1.0,1.0,99,0.00,,SKC,0.01,0.00,VWS V14.01,2013-01-12 12:09:00,
2013-01-12 07:10:00,43.8,43.5,30.15,SW,218,1.0,2.0,99,0.00,,SKC,0.01,0.00,VWS V14.01,2013-01-12 12:10:00,
2013-01-12 07:13:00,43.6,43.3,30.16,SW,218,0.0,2.0,99,0.00,,SKC,0.01,0.00,VWS V14.01,2013-01-12 12:13:00,
2013-01-12 07:14:00,43.6,43.3,30.15,SW,218,0.0,2.0,99,0.00,,SKC,0.01,0.00,VWS V14.01,2013-01-12 12:14:00,
2013-01-12 07:15:00,43.6,43.3,30.15,SW,218,0.0,2.0,99,0.00,,SKC,0.01,0.00,VWS V14.01,2013-01-12 12:15:00,
2013-01-12 07:18:00,43.6,43.3,30.15,SW,218,0.0,2.0,99,0.00,,SKC,0.01,0.00,VWS V14.01,2013-01-12 12:18:00,
2013-01-12 07:19:00,43.6,43.3,30.16,SW,218,0.0,2.0,99,0.00,,SKC,0.01,0.00,VWS V14.01,2013-01-12 12:19:00,
2013-01-12 07:20:00,43.6,43.3,30.16,SW,218,0.0,2.0,99,0.00,,SKC,0.01,0.00,VWS V14.01,2013-01-12 12:20:00,
2013-01-12 07:23:00,43.7,43.4,30.15,SW,218,0.0,2.0,99,0.00,,SKC,0.01,0.00,VWS V14.01,2013-01-12 12:23:00,
2013-01-12 07:24:00,43.7,43.4,30.15,SW,218,0.0,2.0,99,0.00,,SKC,0.01,0.00,VWS V14.01,2013-01-12 12:24:00,
2013-01-12 07:25:00,43.7,43.4,30.15,SW,218,0.0,2.0,99,0.00,,SKC,0.01,0.00,VWS V14.01,2013-01-12 12:25:00,
2013-01-12 07:29:00,43.8,43.5,30.16,SW,218,2.0,2.0,99,0.00,,SKC,0.01,0.00,VWS V14.01,2013-01-12 12:29:00,
2013-01-12 07:30:00,43.9,43.6,30.16,SW,218,3.0,3.0,99,0.00,,SKC,0.01,0.00,VWS V14.01,2013-01-12 12:30:00,
2013-01-12 07:34:00,44.1,43.8,30.16,SW,218,0.0,4.0,99,0.00,,SKC,0.01,0.00,VWS V14.01,2013-01-12 12:34:00,
2013-01-12 07:35:00,44.1,43.8,30.16,SW,218,1.0,4.0,99,0.00,,SKC,0.01,0.00,VWS V14.01,2013-01-12 12:35:00,
2013-01-12 07:36:00,44.1,43.8,30.16,SW,218,3.0,4.0,99,0.00,,SKC,0.01,0.00,VWS V14.01,2013-01-12 12:36:00,
2013-01-12 07:39:00,44.0,43.7,30.16,SW,218,0.0,4.0,99,0.00,,SKC,0.01,5.00,VWS V14.01,2013-01-12 12:39:00,
2013-01-12 07:40:00,44.1,43.8,30.15,SW,218,0.0,4.0,99,0.00,,SKC,0.01,7.00,VWS V14.01,2013-01-12 12:40:00,
2013-01-12 07:41:00,44.1,43.8,30.15,SW,218,0.0,4.0,99,0.00,,SKC,0.01,7.00,VWS V14.01,2013-01-12 12:41:00,
2013-01-12 07:44:00,44.0,43.7,30.16,SW,218,0.0,4.0,99,0.00,,SKC,0.01,12.00,VWS V14.01,2013-01-12 12:44:00,
2013-01-12 07:45:00,44.0,43.7,30.16,SW,218,2.0,4.0,99,0.00,,SKC,0.01,16.00,VWS V14.01,2013-01-12 12:45:00,
2013-01-12 07:46:00,44.0,43.7,30.16,SW,218,0.0,4.0,99,0.00,,SKC,0.01,16.00,VWS V14.01,2013-01-12 12:46:00,
2013-01-12 07:49:00,43.8,43.5,30.16,SW,218,0.0,4.0,99,0.00,,SKC,0.01,21.00,VWS V14.01,2013-01-12 12:49:00,
2013-01-12 07:50:00,43.8,43.5,30.16,SW,218,0.0,4.0,99,0.00,,SKC,0.01,23.00,VWS V14.01,2013-01-12 12:50:00,
2013-01-12 07:51:00,43.7,43.4,30.16,SW,218,0.0,4.0,99,0.00,,SKC,0.01,26.00,VWS V14.01,2013-01-12 12:51:00,
2013-01-12 07:54:00,43.5,43.2,30.16,SW,218,0.0,4.0,99,0.00,,SKC,0.01,18.00,VWS V14.01,2013-01-12 12:54:00,
2013-01-12 07:55:00,43.5,43.2,30.16,SW,218,0.0,4.0,99,0.00,,SKC,0.01,16.00,VWS V14.01,2013-01-12 12:55:00,
2013-01-12 07:56:00,43.5,43.2,30.16,SW,218,0.0,4.0,99,0.00,,SKC,0.01,14.00,VWS V14.01,2013-01-12 12:56:00,
2013-01-12 08:00:00,43.5,43.2,30.16,SW,218,0.0,4.0,99,0.00,,SKC,0.01,16.00,VWS V14.01,2013-01-12 13:00:00,
2013-01-12 08:01:00,43.6,43.3,30.16,SW,218,0.0,0.0,99,0.00,,SKC,0.01,16.00,VWS V14.01,2013-01-12 13:01:00,
2013-01-12 08:02:00,43.6,43.3,30.16,SW,218,1.0,1.0,99,0.00,,SKC,0.01,16.00,VWS V14.01,2013-01-12 13:02:00,
2013-01-12 08:05:00,43.6,43.3,30.16,SW,218,0.0,1.0,99,0.00,,SKC,0.01,33.00,VWS V14.01,2013-01-12 13:05:00,
2013-01-12 08:07:00,43.7,43.4,30.16,SW,218,0.0,1.0,99,0.00,,SKC,0.01,37.00,VWS V14.01,2013-01-12 13:07:00,
2013-01-12 08:10:00,43.8,43.5,30.16,SW,218,0.0,1.0,99,0.00,,SKC,0.01,63.00,VWS V14.01,2013-01-12 13:10:00,
2013-01-12 08:12:00,43.9,43.6,30.16,SW,218,0.0,1.0,99,0.00,,SKC,0.01,60.00,VWS V14.01,2013-01-12 13:12:00,
2013-01-12 08:13:00,44.0,43.7,30.16,SW,218,0.0,1.0,99,0.00,,SKC,0.01,49.00,VWS V14.01,2013-01-12 13:13:00,
2013-01-12 08:16:00,44.3,44.0,30.16,SW,218,0.0,1.0,99,0.00,,SKC,0.01,40.00,VWS V14.01,2013-01-12 13:16:00,
2013-01-12 08:17:00,44.5,44.2,30.16,SW,218,0.0,1.0,99,0.00,,SKC,0.01,39.00,VWS V14.01,2013-01-12 13:17:00,
2013-01-12 08:18:00,44.6,44.3,30.17,SW,218,0.0,1.0,99,0.00,,SKC,0.01,32.00,VWS V14.01,2013-01-12 13:18:00,
2013-01-12 08:21:00,44.7,44.4,30.17,SW,218,0.0,1.0,99,0.00,,SKC,0.01,54.00,VWS V14.01,2013-01-12 13:21:00,
2013-01-12 08:22:00,44.8,44.5,30.17,SW,218,0.0,1.0,99,0.00,,SKC,0.01,44.00,VWS V14.01,2013-01-12 13:22:00,
2013-01-12 08:23:00,44.9,44.6,30.17,SW,218,0.0,1.0,99,0.00,,SKC,0.01,37.00,VWS V14.01,2013-01-12 13:23:00,
2013-01-12 08:26:00,45.0,44.7,30.17,ESE,110,0.0,1.0,99,0.00,,SKC,0.01,35.00,VWS V14.01,2013-01-12 13:26:00,
2013-01-12 08:27:00,45.0,44.7,30.17,ESE,110,0.0,1.0,99,0.00,,SKC,0.01,37.00,VWS V14.01,2013-01-12 13:27:00,
2013-01-12 08:28:00,45.1,44.8,30.17,ESE,110,0.0,1.0,99,0.00,,SKC,0.01,39.00,VWS V14.01,2013-01-12 13:28:00,
2013-01-12 08:31:00,45.0,44.7,30.17,ESE,110,0.0,0.0,99,0.00,,SKC,0.01,39.00,VWS V14.01,2013-01-12 13:31:00,
2013-01-12 08:32:00,45.0,44.7,30.17,ESE,110,0.0,0.0,99,0.00,,SKC,0.01,37.00,VWS V14.01,2013-01-12 13:32:00,
2013-01-12 08:33:00,45.0,44.7,30.17,ESE,110,0.0,0.0,99,0.00,,SKC,0.01,39.00,VWS V14.01,2013-01-12 13:33:00,
2013-01-12 08:36:00,45.1,44.8,30.17,ESE,110,0.0,0.0,99,0.00,,SKC,0.01,56.00,VWS V14.01,2013-01-12 13:36:00,
2013-01-12 08:37:00,45.1,44.8,30.17,ESE,110,0.0,1.0,99,0.00,,SKC,0.01,58.00,VWS V14.01,2013-01-12 13:37:00,
2013-01-12 08:38:00,45.1,44.8,30.17,ESE,110,0.0,1.0,99,0.00,,SKC,0.01,58.00,VWS V14.01,2013-01-12 13:38:00,
2013-01-12 08:41:00,45.2,44.9,30.18,ESE,110,0.0,1.0,99,0.00,,SKC,0.01,49.00,VWS V14.01,2013-01-12 13:41:00,
2013-01-12 08:42:00,45.2,44.9,30.18,ESE,110,0.0,1.0,99,0.00,,SKC,0.01,42.00,VWS V14.01,2013-01-12 13:42:00,
2013-01-12 08:43:00,45.2,44.9,30.18,ESE,110,0.0,1.0,99,0.00,,SKC,0.01,37.00,VWS V14.01,2013-01-12 13:43:00,
2013-01-12 08:47:00,45.3,45.0,30.18,ESE,110,0.0,1.0,99,0.00,,SKC,0.01,44.00,VWS V14.01,2013-01-12 13:47:00,
2013-01-12 08:48:00,45.3,45.0,30.18,ESE,110,1.0,1.0,99,0.00,,SKC,0.01,44.00,VWS V14.01,2013-01-12 13:48:00,
2013-01-12 08:52:00,45.4,45.1,30.18,ESE,110,0.0,2.0,99,0.00,,SKC,0.01,46.00,VWS V14.01,2013-01-12 13:52:00,
2013-01-12 08:53:00,45.4,45.1,30.18,ESE,110,0.0,2.0,99,0.00,,SKC,0.01,42.00,VWS V14.01,2013-01-12 13:53:00,
2013-01-12 08:57:00,45.5,45.2,30.18,ESE,110,0.0,2.0,99,0.00,,SKC,0.01,42.00,VWS V14.01,2013-01-12 13:57:00,
2013-01-12 08:58:00,45.6,45.3,30.18,ESE,110,0.0,2.0,99,0.00,,SKC,0.01,42.00,VWS V14.01,2013-01-12 13:58:00,
2013-01-12 09:02:00,45.7,45.4,30.18,ESE,110,0.0,0.0,99,0.00,,SKC,0.01,39.00,VWS V14.01,2013-01-12 14:02:00,
2013-01-12 09:03:00,45.7,45.4,30.18,ESE,110,0.0,0.0,99,0.00,,SKC,0.01,39.00,VWS V14.01,2013-01-12 14:03:00,
2013-01-12 09:04:00,45.7,45.4,30.18,ESE,110,0.0,0.0,99,0.00,,SKC,0.01,40.00,VWS V14.01,2013-01-12 14:04:00,
2013-01-12 09:07:00,45.8,45.5,30.18,ESE,110,0.0,0.0,99,0.00,,SKC,0.01,46.00,VWS V14.01,2013-01-12 14:07:00,
2013-01-12 09:08:00,45.8,45.5,30.18,ESE,110,0.0,1.0,99,0.00,,SKC,0.01,44.00,VWS V14.01,2013-01-12 14:08:00,
2013-01-12 09:09:00,45.8,45.5,30.18,ESE,110,0.0,1.0,99,0.00,,SKC,0.01,44.00,VWS V14.01,2013-01-12 14:09:00,
2013-01-12 09:12:00,45.9,45.6,30.18,ESE,110,0.0,2.0,99,0.00,,SKC,0.01,49.00,VWS V14.01,2013-01-12 14:12:00,
2013-01-12 09:13:00,46.0,45.7,30.18,ESE,110,0.0,2.0,99,0.00,,SKC,0.01,47.00,VWS V14.01,2013-01-12 14:13:00,
2013-01-12 09:14:00,46.0,45.7,30.18,ESE,110,0.0,2.0,99,0.00,,SKC,0.01,49.00,VWS V14.01,2013-01-12 14:14:00,
2013-01-12 09:17:00,46.2,45.9,30.18,ESE,110,0.0,2.0,99,0.00,,SKC,0.01,60.00,VWS V14.01,2013-01-12 14:17:00,
2013-01-12 09:18:00,46.2,45.9,30.18,ESE,110,0.0,2.0,99,0.00,,SKC,0.01,54.00,VWS V14.01,2013-01-12 14:18:00,
2013-01-12 09:19:00,46.3,46.0,30.18,ESE,110,0.0,2.0,99,0.00,,SKC,0.01,51.00,VWS V14.01,2013-01-12 14:19:00,
2013-01-12 09:20:00,46.3,46.0,30.18,ESE,110,1.0,2.0,99,0.00,,SKC,0.01,54.00,VWS V14.01,2013-01-12 14:20:00,
2013-01-12 09:22:00,46.4,46.1,30.18,ESE,110,1.0,2.0,99,0.00,,SKC,0.01,53.00,VWS V14.01,2013-01-12 14:22:00,
2013-01-12 09:23:00,46.4,46.1,30.17,ESE,110,1.0,2.0,99,0.00,,SKC,0.01,49.00,VWS V14.01,2013-01-12 14:23:00,
2013-01-12 09:24:00,46.4,46.1,30.17,ESE,110,1.0,2.0,99,0.00,,SKC,0.01,46.00,VWS V14.01,2013-01-12 14:24:00,
2013-01-12 09:25:00,46.5,46.2,30.17,ESE,110,0.0,2.0,99,0.00,,SKC,0.01,46.00,VWS V14.01,2013-01-12 14:25:00,
2013-01-12 09:28:00,46.5,46.2,30.18,ESE,110,0.0,2.0,99,0.00,,SKC,0.01,53.00,VWS V14.01,2013-01-12 14:28:00,
2013-01-12 09:29:00,46.7,46.4,30.18,ESE,110,2.0,2.0,99,0.00,,SKC,0.01,241.00,VWS V14.01,2013-01-12 14:29:00,
2013-01-12 09:31:00,47.0,46.7,30.18,ESE,110,0.0,1.0,99,0.00,,SKC,0.01,251.00,VWS V14.01,2013-01-12 14:31:00,
2013-01-12 09:33:00,47.2,46.9,30.18,ESE,110,1.0,1.0,99,0.00,,SKC,0.01,250.00,VWS V14.01,2013-01-12 14:33:00,
2013-01-12 09:34:00,47.4,47.1,30.18,ESE,110,2.0,2.0,99,0.00,,SKC,0.01,250.00,VWS V14.01,2013-01-12 14:34:00,
2013-01-12 09:36:00,47.7,47.4,30.18,ESE,110,0.0,3.0,99,0.00,,SKC,0.01,250.00,VWS V14.01,2013-01-12 14:36:00,
2013-01-12 09:38:00,47.9,47.6,30.18,ESE,110,1.0,3.0,99,0.00,,SKC,0.01,253.00,VWS V14.01,2013-01-12 14:38:00,
2013-01-12 09:39:00,48.1,47.8,30.18,ESE,110,2.0,3.0,99,0.00,,SKC,0.01,264.00,VWS V14.01,2013-01-12 14:39:00,
2013-01-12 09:41:00,48.2,47.9,30.18,ESE,110,0.0,3.0,99,0.00,,SKC,0.01,272.00,VWS V14.01,2013-01-12 14:41:00,
2013-01-12 09:43:00,48.5,48.2,30.18,ESE,110,0.0,3.0,99,0.00,,SKC,0.01,278.00,VWS V14.01,2013-01-12 14:43:00,
2013-01-12 09:44:00,48.6,48.3,30.18,ESE,110,0.0,3.0,99,0.00,,SKC,0.01,285.00,VWS V14.01,2013-01-12 14:44:00,
2013-01-12 09:46:00,48.7,48.4,30.18,ESE,110,0.0,3.0,99,0.00,,SKC,0.01,290.00,VWS V14.01,2013-01-12 14:46:00,
2013-01-12 09:48:00,48.9,48.6,30.18,ESE,110,2.0,3.0,99,0.00,,SKC,0.01,294.00,VWS V14.01,2013-01-12 14:48:00,
2013-01-12 09:49:00,49.0,48.7,30.19,ESE,110,1.0,3.0,99,0.00,,SKC,0.01,297.00,VWS V14.01,2013-01-12 14:49:00,
2013-01-12 09:50:00,49.0,48.7,30.19,ESE,110,1.0,3.0,99,0.00,,SKC,0.01,297.00,VWS V14.01,2013-01-12 14:50:00,
2013-01-12 09:51:00,49.4,49.1,30.18,SW,223,2.0,3.0,99,0.00,,SKC,0.01,301.00,VWS V14.01,2013-01-12 14:51:00,
2013-01-12 09:53:00,49.7,49.4,30.18,SW,223,0.0,3.0,99,0.00,,SKC,0.01,306.00,VWS V14.01,2013-01-12 14:53:00,
2013-01-12 09:54:00,49.9,49.6,30.18,SW,223,0.0,3.0,99,0.00,,SKC,0.01,308.00,VWS V14.01,2013-01-12 14:54:00,
2013-01-12 09:55:00,49.9,49.6,30.18,SW,223,0.0,3.0,99,0.00,,SKC,0.01,308.00,VWS V14.01,2013-01-12 14:55:00,
2013-01-12 09:56:00,50.1,49.8,30.19,WSW,245,0.0,3.0,99,0.00,,SKC,0.01,313.00,VWS V14.01,2013-01-12 14:56:00,
2013-01-12 09:58:00,50.3,50.0,30.19,WSW,245,0.0,3.0,99,0.00,,SKC,0.01,329.00,VWS V14.01,2013-01-12 14:58:00,
2013-01-12 09:59:00,50.4,50.1,30.19,WSW,245,0.0,3.0,99,0.00,,SKC,0.01,374.00,VWS V14.01,2013-01-12 14:59:00,
2013-01-12 10:00:00,50.5,50.2,30.19,WSW,245,0.0,3.0,99,0.00,,SKC,0.01,374.00,VWS V14.01,2013-01-12 15:00:00,
2013-01-12 10:01:00,50.7,50.4,30.19,WSW,245,0.0,0.0,99,0.00,,SKC,0.01,399.00,VWS V14.01,2013-01-12 15:01:00,
2013-01-12 10:03:00,51.0,50.7,30.19,WSW,245,0.0,0.0,99,0.00,,SKC,0.01,176.00,VWS V14.01,2013-01-12 15:03:00,
2013-01-12 10:04:00,51.2,50.9,30.19,WSW,245,1.0,2.0,99,0.00,,SKC,0.01,199.00,VWS V14.01,2013-01-12 15:04:00,
2013-01-12 10:05:00,51.2,50.7,30.19,WSW,245,0.0,2.0,98,0.00,,SKC,0.01,199.00,VWS V14.01,2013-01-12 15:05:00,
2013-01-12 10:07:00,51.3,50.8,30.19,WSW,245,0.0,2.0,98,0.00,,SKC,0.01,192.00,VWS V14.01,2013-01-12 15:07:00,
2013-01-12 10:09:00,51.5,51.0,30.19,WSW,245,0.0,2.0,98,0.00,,SKC,0.01,158.00,VWS V14.01,2013-01-12 15:09:00,
2013-01-12 10:10:00,51.6,51.1,30.19,WSW,245,0.0,2.0,98,0.00,,SKC,0.01,153.00,VWS V14.01,2013-01-12 15:10:00,
2013-01-12 10:12:00,51.8,51.3,30.19,SSW,210,1.0,2.0,98,0.00,,SKC,0.01,160.00,VWS V14.01,2013-01-12 15:12:00,
2013-01-12 10:14:00,52.0,51.5,30.19,SSW,209,1.0,3.0,98,0.00,,SKC,0.01,127.00,VWS V14.01,2013-01-12 15:14:00,
2013-01-12 10:15:00,52.1,51.5,30.19,SSW,209,1.0,3.0,98,0.00,,SKC,0.01,127.00,VWS V14.01,2013-01-12 15:15:00,
2013-01-12 10:17:00,52.2,51.7,30.19,SSW,209,0.0,3.0,98,0.00,,SKC,0.01,114.00,VWS V14.01,2013-01-12 15:17:00,
2013-01-12 10:19:00,52.4,51.6,30.19,SSW,209,0.0,3.0,97,0.00,,SKC,0.01,105.00,VWS V14.01,2013-01-12 15:19:00,
2013-01-12 10:20:00,52.4,51.6,30.19,SSW,209,0.0,3.0,97,0.00,,SKC,0.01,102.00,VWS V14.01,2013-01-12 15:20:00,
2013-01-12 10:23:00,52.6,51.8,30.19,SSW,209,0.0,3.0,97,0.00,,SKC,0.01,104.00,VWS V14.01,2013-01-12 15:23:00,
2013-01-12 10:25:00,52.7,51.9,30.19,SSW,209,0.0,3.0,97,0.00,,SKC,0.01,105.00,VWS V14.01,2013-01-12 15:25:00,
2013-01-12 10:26:00,52.7,51.9,30.19,SSW,209,0.0,3.0,97,0.00,,SKC,0.01,105.00,VWS V14.01,2013-01-12 15:26:00,
2013-01-12 10:28:00,52.8,52.0,30.19,SSW,209,0.0,3.0,97,0.00,,SKC,0.01,120.00,VWS V14.01,2013-01-12 15:28:00,
2013-01-12 10:30:00,53.0,52.2,30.18,SSW,209,0.0,3.0,97,0.00,,SKC,0.01,135.00,VWS V14.01,2013-01-12 15:30:00,
2013-01-12 10:31:00,53.0,51.9,30.18,SSW,209,0.0,3.0,96,0.00,,SKC,0.01,142.00,VWS V14.01,2013-01-12 15:31:00,
2013-01-12 10:33:00,53.2,52.1,30.19,SSW,209,1.0,1.0,96,0.00,,SKC,0.01,158.00,VWS V14.01,2013-01-12 15:33:00,
2013-01-12 10:35:00,53.3,52.2,30.18,SSW,209,0.0,1.0,96,0.00,,SKC,0.01,183.00,VWS V14.01,2013-01-12 15:35:00,
2013-01-12 10:36:00,53.5,52.4,30.18,SSW,209,0.0,1.0,96,0.00,,SKC,0.01,193.00,VWS V14.01,2013-01-12 15:36:00,
2013-01-12 10:38:00,53.6,52.5,30.19,SSW,209,0.0,1.0,96,0.00,,SKC,0.01,188.00,VWS V14.01,2013-01-12 15:38:00,
2013-01-12 10:40:00,53.8,52.4,30.19,SSW,209,1.0,2.0,95,0.00,,SKC,0.01,218.00,VWS V14.01,2013-01-12 15:40:00,
2013-01-12 10:41:00,53.9,52.5,30.19,SSW,209,0.0,2.0,95,0.00,,SKC,0.01,213.00,VWS V14.01,2013-01-12 15:41:00,
2013-01-12 10:43:00,54.1,52.4,30.19,SSW,209,0.0,2.0,94,0.00,,SKC,0.01,169.00,VWS V14.01,2013-01-12 15:43:00,
2013-01-12 10:45:00,54.2,52.5,30.19,SSW,209,0.0,2.0,94,0.00,,SKC,0.01,183.00,VWS V14.01,2013-01-12 15:45:00,
2013-01-12 10:46:00,54.2,52.5,30.18,SSW,209,0.0,2.0,94,0.00,,SKC,0.01,195.00,VWS V14.01,2013-01-12 15:46:00,
2013-01-12 10:48:00,54.3,52.3,30.18,SSW,209,0.0,2.0,93,0.00,,SKC,0.01,141.00,VWS V14.01,2013-01-12 15:48:00,
2013-01-12 10:50:00,54.4,52.4,30.18,SSW,209,1.0,2.0,93,0.00,,SKC,0.01,139.00,VWS V14.01,2013-01-12 15:50:00,
2013-01-12 10:51:00,54.5,52.5,30.18,SSW,209,1.0,2.0,93,0.00,,SKC,0.01,202.00,VWS V14.01,2013-01-12 15:51:00,
2013-01-12 10:53:00,54.7,52.4,30.18,SSW,209,0.0,2.0,92,0.00,,SKC,0.01,227.00,VWS V14.01,2013-01-12 15:53:00,
2013-01-12 10:55:00,55.0,52.7,30.18,SSW,209,0.0,2.0,92,0.00,,SKC,0.01,185.00,VWS V14.01,2013-01-12 15:55:00,
2013-01-12 10:56:00,55.0,52.7,30.18,SSW,209,1.0,2.0,92,0.00,,SKC,0.01,185.00,VWS V14.01,2013-01-12 15:56:00,
2013-01-12 10:58:00,55.2,52.9,30.18,SSW,209,0.0,2.0,92,0.00,,SKC,0.01,406.00,VWS V14.01,2013-01-12 15:58:00,
2013-01-12 11:00:00,55.6,53.3,30.18,SSW,209,1.0,2.0,92,0.00,,SKC,0.01,406.00,VWS V14.01,2013-01-12 16:00:00,
2013-01-12 11:01:00,55.8,53.2,30.18,SSW,209,0.0,1.0,91,0.00,,SKC,0.01,156.00,VWS V14.01,2013-01-12 16:01:00,
2013-01-12 11:02:00,55.8,53.2,30.18,SSW,209,0.0,1.0,91,0.00,,SKC,0.01,156.00,VWS V14.01,2013-01-12 16:02:00,
2013-01-12 11:03:00,56.1,53.5,30.18,SSW,209,0.0,1.0,91,0.00,,SKC,0.01,255.00,VWS V14.01,2013-01-12 16:03:00,
2013-01-12 11:05:00,56.4,53.5,30.18,SSW,209,0.0,1.0,90,0.00,,SKC,0.01,285.00,VWS V14.01,2013-01-12 16:05:00,
2013-01-12 11:06:00,56.6,53.7,30.18,SSW,209,1.0,1.0,90,0.00,,SKC,0.01,294.00,VWS V14.01,2013-01-12 16:06:00,
2013-01-12 11:07:00,56.7,53.8,30.18,SSW,209,0.0,1.0,90,0.00,,SKC,0.01,294.00,VWS V14.01,2013-01-12 16:07:00,
2013-01-12 11:09:00,57.1,53.9,30.18,SSW,209,0.0,1.0,89,0.00,,SKC,0.01,244.00,VWS V14.01,2013-01-12 16:09:00,
2013-01-12 11:10:00,57.3,53.8,30.18,SSW,209,0.0,1.0,88,0.00,,SKC,0.01,257.00,VWS V14.01,2013-01-12 16:10:00,
2013-01-12 11:11:00,57.5,54.0,30.18,SSW,209,0.0,1.0,88,0.00,,SKC,0.01,257.00,VWS V14.01,2013-01-12 16:11:00,
2013-01-12 11:12:00,57.6,54.1,30.18,SSW,209,0.0,1.0,88,0.00,,SKC,0.01,257.00,VWS V14.01,2013-01-12 16:12:00,
2013-01-12 11:14:00,58.0,54.2,30.18,SSW,209,1.0,1.0,87,0.00,,SKC,0.01,276.00,VWS V14.01,2013-01-12 16:14:00,
2013-01-12 11:16:00,58.1,54.3,30.18,SSW,209,0.0,1.0,87,0.00,,SKC,0.01,316.00,VWS V14.01,2013-01-12 16:16:00,
2013-01-12 11:17:00,58.3,54.5,30.18,SSW,209,0.0,1.0,87,0.00,,SKC,0.01,650.00,VWS V14.01,2013-01-12 16:17:00,
2013-01-12 11:19:00,59.1,54.9,30.18,SSW,209,0.0,2.0,86,0.00,,SKC,0.01,279.00,VWS V14.01,2013-01-12 16:19:00,
2013-01-12 11:21:00,59.5,55.0,30.18,SSW,209,0.0,2.0,85,0.00,,SKC,0.01,279.00,VWS V14.01,2013-01-12 16:21:00,
2013-01-12 11:22:00,59.9,55.1,30.17,SSW,209,0.0,2.0,84,0.00,,SKC,0.01,279.00,VWS V14.01,2013-01-12 16:22:00,
2013-01-12 11:25:00,60.7,55.5,30.17,SSW,209,1.0,3.0,83,0.00,,SKC,0.01,578.00,VWS V14.01,2013-01-12 16:25:00,
2013-01-12 11:27:00,61.1,55.6,30.17,SSW,209,0.0,3.0,82,0.00,,SKC,0.01,538.00,VWS V14.01,2013-01-12 16:27:00,
2013-01-12 11:30:00,61.9,55.7,30.17,SSE,168,0.0,3.0,80,0.00,,SKC,0.01,512.00,VWS V14.01,2013-01-12 16:30:00,
2013-01-12 11:32:00,62.3,56.1,30.17,SSE,168,0.0,1.0,80,0.00,,SKC,0.01,490.00,VWS V14.01,2013-01-12 16:32:00,
2013-01-12 11:35:00,63.0,56.4,30.17,SSE,167,0.0,2.0,79,0.00,,SKC,0.01,508.00,VWS V14.01,2013-01-12 16:35:00,
2013-01-12 11:37:00,63.4,56.4,30.17,SSE,167,0.0,2.0,78,0.00,,SKC,0.01,533.00,VWS V14.01,2013-01-12 16:37:00,
2013-01-12 11:38:00,63.5,56.5,30.17,South,169,0.0,2.0,78,0.00,,SKC,0.01,541.00,VWS V14.01,2013-01-12 16:38:00,
2013-01-12 11:40:00,63.6,56.6,30.17,South,169,0.0,3.0,78,0.00,,SKC,0.01,526.00,VWS V14.01,2013-01-12 16:40:00,
2013-01-12 11:42:00,63.9,56.9,30.17,South,169,1.0,3.0,78,0.00,,SKC,0.01,566.00,VWS V14.01,2013-01-12 16:42:00,
2013-01-12 11:43:00,63.9,56.6,30.17,South,169,0.0,3.0,77,0.00,,SKC,0.01,566.00,VWS V14.01,2013-01-12 16:43:00,
2013-01-12 11:45:00,64.0,56.7,30.17,South,169,1.0,3.0,77,0.00,,SKC,0.01,193.00,VWS V14.01,2013-01-12 16:45:00,
2013-01-12 11:47:00,64.0,56.7,30.16,South,169,0.0,3.0,77,0.00,,SKC,0.01,227.00,VWS V14.01,2013-01-12 16:47:00,
2013-01-12 11:48:00,64.0,56.7,30.16,South,169,0.0,3.0,77,0.00,,SKC,0.01,227.00,VWS V14.01,2013-01-12 16:48:00,
2013-01-12 11:50:00,64.1,57.1,30.16,South,169,0.0,3.0,78,0.00,,SKC,0.01,262.00,VWS V14.01,2013-01-12 16:50:00,
2013-01-12 11:52:00,64.2,57.2,30.16,South,169,0.0,3.0,78,0.00,,SKC,0.01,279.00,VWS V14.01,2013-01-12 16:52:00,
2013-01-12 11:53:00,64.2,57.2,30.16,South,169,0.0,3.0,78,0.00,,SKC,0.01,279.00,VWS V14.01,2013-01-12 16:53:00,
2013-01-12 11:55:00,64.3,57.0,30.16,South,169,0.0,3.0,77,0.00,,SKC,0.01,290.00,VWS V14.01,2013-01-12 16:55:00,
2013-01-12 11:57:00,64.3,57.0,30.15,South,169,0.0,3.0,77,0.00,,SKC,0.01,288.00,VWS V14.01,2013-01-12 16:57:00,
2013-01-12 11:58:00,64.3,57.0,30.15,South,169,0.0,3.0,77,0.00,,SKC,0.01,288.00,VWS V14.01,2013-01-12 16:58:00,
2013-01-12 12:00:00,64.4,57.4,30.15,South,169,0.0,3.0,78,0.00,,SKC,0.01,276.00,VWS V14.01,2013-01-12 17:00:00,
2013-01-12 12:02:00,64.6,57.2,30.15,South,169,2.0,2.0,77,0.00,,SKC,0.01,279.00,VWS V14.01,2013-01-12 17:02:00,
2013-01-12 12:03:00,64.6,57.2,30.15,South,169,1.0,2.0,77,0.00,,SKC,0.01,279.00,VWS V14.01,2013-01-12 17:03:00,
2013-01-12 12:05:00,64.7,57.3,30.15,South,169,2.0,2.0,77,0.00,,SKC,0.01,374.00,VWS V14.01,2013-01-12 17:05:00,
2013-01-12 12:07:00,64.8,57.4,30.15,SSE,168,3.0,3.0,77,0.00,,SKC,0.01,323.00,VWS V14.01,2013-01-12 17:07:00,
2013-01-12 12:08:00,64.8,57.4,30.15,SSE,150,4.0,4.0,77,0.00,,SKC,0.01,378.00,VWS V14.01,2013-01-12 17:08:00,
2013-01-12 12:09:00,64.8,57.4,30.15,SSE,150,3.0,4.0,77,0.00,,SKC,0.01,455.00,VWS V14.01,2013-01-12 17:09:00,
2013-01-12 12:11:00,64.9,57.5,30.16,SSE,150,0.0,4.0,77,0.00,,SKC,0.01,636.00,VWS V14.01,2013-01-12 17:11:00,
2013-01-12 12:13:00,65.2,58.2,30.15,SE,124,4.0,5.0,78,0.00,,SKC,0.01,578.00,VWS V14.01,2013-01-12 17:13:00,
2013-01-12 12:14:00,65.2,58.2,30.15,SE,125,4.0,5.0,78,0.00,,SKC,0.01,578.00,VWS V14.01,2013-01-12 17:14:00,
2013-01-12 12:16:00,65.2,57.8,30.15,SE,127,3.0,5.0,77,0.00,,SKC,0.01,587.00,VWS V14.01,2013-01-12 17:16:00,
2013-01-12 12:18:00,65.6,58.2,30.14,SE,127,2.0,5.0,77,0.00,,SKC,0.01,510.00,VWS V14.01,2013-01-12 17:18:00,
2013-01-12 12:19:00,65.6,58.2,30.14,SE,127,2.0,5.0,77,0.00,,SKC,0.01,225.00,VWS V14.01,2013-01-12 17:19:00,
2013-01-12 12:21:00,65.6,57.8,30.14,SE,127,0.0,5.0,76,0.00,,SKC,0.01,225.00,VWS V14.01,2013-01-12 17:21:00,
2013-01-12 12:23:00,65.8,58.4,30.15,SE,127,2.0,5.0,77,0.00,,SKC,0.01,538.00,VWS V14.01,2013-01-12 17:23:00,
2013-01-12 12:24:00,65.8,58.4,30.14,SE,127,0.0,5.0,77,0.00,,SKC,0.01,538.00,VWS V14.01,2013-01-12 17:24:00,
2013-01-12 12:26:00,66.4,59.0,30.14,SE,127,0.0,5.0,77,0.00,,SKC,0.01,566.00,VWS V14.01,2013-01-12 17:26:00,
2013-01-12 12:28:00,67.3,59.5,30.15,SE,127,1.0,5.0,76,0.00,,SKC,0.01,603.00,VWS V14.01,2013-01-12 17:28:00,
2013-01-12 12:29:00,67.6,59.4,30.15,SE,127,1.0,5.0,75,0.00,,SKC,0.01,626.00,VWS V14.01,2013-01-12 17:29:00,
2013-01-12 12:31:00,67.8,59.2,30.15,SE,126,1.0,1.0,74,0.00,,SKC,0.01,642.00,VWS V14.01,2013-01-12 17:31:00,
2013-01-12 12:33:00,68.0,59.4,30.15,SE,127,1.0,4.0,74,0.00,,SKC,0.01,638.00,VWS V14.01,2013-01-12 17:33:00,
2013-01-12 12:34:00,68.0,59.4,30.15,SE,127,2.0,4.0,74,0.00,,SKC,0.01,638.00,VWS V14.01,2013-01-12 17:34:00,
2013-01-12 12:36:00,68.5,59.9,30.15,South,175,2.0,4.0,74,0.00,,SKC,0.01,327.00,VWS V14.01,2013-01-12 17:36:00,
2013-01-12 12:38:00,68.3,58.9,30.15,South,172,1.0,4.0,72,0.00,,SKC,0.01,292.00,VWS V14.01,2013-01-12 17:38:00,
2013-01-12 12:39:00,68.3,58.9,30.15,South,172,0.0,4.0,72,0.00,,SKC,0.01,292.00,VWS V14.01,2013-01-12 17:39:00,
2013-01-12 12:41:00,68.1,59.1,30.14,South,180,1.0,4.0,73,0.00,,SKC,0.01,355.00,VWS V14.01,2013-01-12 17:41:00,
2013-01-12 12:44:00,67.9,58.9,30.14,South,182,0.0,4.0,73,0.00,,SKC,0.01,287.00,VWS V14.01,2013-01-12 17:44:00,
2013-01-12 12:45:00,67.9,58.9,30.14,South,182,1.0,4.0,73,0.00,,SKC,0.01,274.00,VWS V14.01,2013-01-12 17:45:00,
2013-01-12 12:46:00,68.0,59.4,30.14,East,97,1.0,4.0,74,0.00,,SKC,0.01,258.00,VWS V14.01,2013-01-12 17:46:00,
2013-01-12 12:49:00,68.2,59.2,30.14,East,97,0.0,4.0,73,0.00,,SKC,0.01,570.00,VWS V14.01,2013-01-12 17:49:00,
2013-01-12 12:50:00,68.5,59.9,30.14,East,97,0.0,4.0,74,0.00,,SKC,0.01,526.00,VWS V14.01,2013-01-12 17:50:00,
2013-01-12 12:51:00,69.4,59.6,30.14,East,97,0.0,4.0,71,0.00,,SKC,0.01,598.00,VWS V14.01,2013-01-12 17:51:00,
2013-01-12 12:54:00,70.2,60.0,30.14,East,99,2.0,4.0,70,0.00,,SKC,0.01,587.00,VWS V14.01,2013-01-12 17:54:00,
2013-01-12 12:55:00,70.3,60.1,30.14,SE,124,4.0,4.0,70,0.00,,SKC,0.01,545.00,VWS V14.01,2013-01-12 17:55:00,
2013-01-12 12:57:00,69.8,59.6,30.13,SSE,149,3.0,5.0,70,0.00,,SKC,0.01,529.00,VWS V14.01,2013-01-12 17:57:00,
2013-01-12 12:59:00,69.2,59.4,30.13,SSE,149,1.0,5.0,71,0.00,,SKC,0.01,385.00,VWS V14.01,2013-01-12 17:59:00,
2013-01-12 13:00:00,69.2,59.4,30.13,SSE,149,0.0,5.0,71,0.00,,SKC,0.01,408.00,VWS V14.01,2013-01-12 18:00:00,
2013-01-12 13:02:00,69.0,59.6,30.13,SSE,149,0.0,2.0,72,0.00,,SKC,0.01,520.00,VWS V14.01,2013-01-12 18:02:00,
2013-01-12 13:04:00,68.9,59.5,30.13,SSE,148,4.0,4.0,72,0.00,,SKC,0.01,508.00,VWS V14.01,2013-01-12 18:04:00,
2013-01-12 13:05:00,68.9,59.5,30.13,SE,141,1.0,4.0,72,0.00,,SKC,0.01,512.00,VWS V14.01,2013-01-12 18:05:00,
2013-01-12 13:07:00,69.1,59.7,30.13,SE,133,1.0,4.0,72,0.00,,SKC,0.01,548.00,VWS V14.01,2013-01-12 18:07:00,
2013-01-12 13:09:00,69.7,59.9,30.13,SSE,167,2.0,4.0,71,0.00,,SKC,0.01,543.00,VWS V14.01,2013-01-12 18:09:00,
2013-01-12 13:10:00,69.8,60.0,30.13,SSE,161,4.0,4.0,71,0.00,,SKC,0.01,540.00,VWS V14.01,2013-01-12 18:10:00,
2013-01-12 13:12:00,69.9,59.7,30.13,South,175,3.0,8.0,70,0.00,,SKC,0.01,385.00,VWS V14.01,2013-01-12 18:12:00,
2013-01-12 13:15:00,69.8,59.6,30.13,SE,142,5.0,8.0,70,0.00,,SKC,0.01,251.00,VWS V14.01,2013-01-12 18:15:00,
2013-01-12 13:18:00,69.5,59.3,30.13,SSE,150,4.0,8.0,70,0.00,,SKC,0.01,206.00,VWS V14.01,2013-01-12 18:18:00,
2013-01-12 13:20:00,69.4,59.6,30.13,SE,134,5.0,8.0,71,0.00,,SKC,0.01,171.00,VWS V14.01,2013-01-12 18:20:00,
2013-01-12 13:21:00,69.3,59.5,30.13,SE,129,2.0,8.0,71,0.00,,SKC,0.01,153.00,VWS V14.01,2013-01-12 18:21:00,
2013-01-12 13:23:00,69.2,59.4,30.13,SE,125,2.0,8.0,71,0.00,,SKC,0.01,104.00,VWS V14.01,2013-01-12 18:23:00,
2013-01-12 13:25:00,69.2,59.4,30.13,ESE,121,2.0,8.0,71,0.00,,SKC,0.01,86.00,VWS V14.01,2013-01-12 18:25:00,
2013-01-12 13:26:00,69.2,59.4,30.13,ESE,119,3.0,8.0,71,0.00,,SKC,0.01,81.00,VWS V14.01,2013-01-12 18:26:00,
2013-01-12 13:29:00,69.1,59.3,30.13,ESE,123,1.0,8.0,71,0.00,,SKC,0.01,74.00,VWS V14.01,2013-01-12 18:29:00,
2013-01-12 13:30:00,69.0,59.2,30.12,SE,126,2.0,8.0,71,0.00,,SKC,0.01,72.00,VWS V14.01,2013-01-12 18:30:00,
2013-01-12 13:31:00,69.0,59.2,30.12,SE,126,2.0,2.0,71,0.00,,SKC,0.01,70.00,VWS V14.01,2013-01-12 18:31:00,
2013-01-12 13:34:00,68.8,59.4,30.12,SE,127,1.0,4.0,72,0.00,,SKC,0.01,74.00,VWS V14.01,2013-01-12 18:34:00,
2013-01-12 13:35:00,68.8,59.4,30.12,SE,127,1.0,4.0,72,0.00,,SKC,0.01,79.00,VWS V14.01,2013-01-12 18:35:00,
2013-01-12 13:36:00,68.8,59.4,30.12,SE,127,1.0,4.0,72,0.00,,SKC,0.01,79.00,VWS V14.01,2013-01-12 18:36:00,
2013-01-12 13:37:00,68.7,59.3,30.12,SE,126,0.0,4.0,72,0.00,,SKC,0.01,83.00,VWS V14.01,2013-01-12 18:37:00,
2013-01-12 13:39:00,68.7,59.7,30.12,SE,126,3.0,4.0,73,0.00,,SKC,0.01,97.00,VWS V14.01,2013-01-12 18:39:00,
2013-01-12 13:40:00,68.6,59.6,30.12,SE,127,2.0,4.0,73,0.00,,SKC,0.01,100.00,VWS V14.01,2013-01-12 18:40:00,
2013-01-12 13:41:00,68.6,59.6,30.12,SE,127,0.0,4.0,73,0.00,,SKC,0.01,102.00,VWS V14.01,2013-01-12 18:41:00,
2013-01-12 13:42:00,68.5,59.1,30.12,SE,127,1.0,4.0,72,0.00,,SKC,0.01,100.00,VWS V14.01,2013-01-12 18:42:00,
2013-01-12 13:45:00,68.5,59.1,30.12,SE,127,0.0,4.0,72,0.00,,SKC,0.01,95.00,VWS V14.01,2013-01-12 18:45:00,
2013-01-12 13:46:00,68.5,59.1,30.12,SE,127,2.0,4.0,72,0.00,,SKC,0.01,98.00,VWS V14.01,2013-01-12 18:46:00,
2013-01-12 13:47:00,68.5,59.1,30.13,SE,126,2.0,4.0,72,0.00,,SKC,0.01,107.00,VWS V14.01,2013-01-12 18:47:00,
2013-01-12 13:50:00,68.4,59.0,30.13,SE,127,0.0,4.0,72,0.00,,SKC,0.01,114.00,VWS V14.01,2013-01-12 18:50:00,
2013-01-12 13:51:00,68.4,59.0,30.13,SE,127,0.0,4.0,72,0.00,,SKC,0.01,116.00,VWS V14.01,2013-01-12 18:51:00,
2013-01-12 13:52:00,68.4,59.0,30.13,SE,127,0.0,4.0,72,0.00,,SKC,0.01,128.00,VWS V14.01,2013-01-12 18:52:00,
2013-01-12 13:55:00,68.5,59.1,30.13,SE,127,0.0,4.0,72,0.00,,SKC,0.01,139.00,VWS V14.01,2013-01-12 18:55:00,
2013-01-12 13:56:00,68.5,59.1,30.13,SE,127,0.0,4.0,72,0.00,,SKC,0.01,146.00,VWS V14.01,2013-01-12 18:56:00,
2013-01-12 13:57:00,68.6,59.2,30.13,SE,127,1.0,4.0,72,0.00,,SKC,0.01,167.00,VWS V14.01,2013-01-12 18:57:00,
2013-01-12 14:00:00,68.6,58.8,30.12,SE,127,0.0,4.0,71,0.00,,SKC,0.01,181.00,VWS V14.01,2013-01-12 19:00:00,
2013-01-12 14:01:00,68.7,58.9,30.13,SE,127,0.0,0.0,71,0.00,,SKC,0.01,178.00,VWS V14.01,2013-01-12 19:01:00,
2013-01-12 14:02:00,68.7,58.9,30.12,SE,127,1.0,1.0,71,0.00,,SKC,0.01,258.00,VWS V14.01,2013-01-12 19:02:00,
2013-01-12 14:05:00,68.9,59.5,30.12,SE,128,0.0,1.0,72,0.00,,SKC,0.01,480.00,VWS V14.01,2013-01-12 19:05:00,
2013-01-12 14:06:00,69.4,59.6,30.12,SE,128,0.0,1.0,71,0.00,,SKC,0.01,482.00,VWS V14.01,2013-01-12 19:06:00,
2013-01-12 14:08:00,69.9,59.7,30.12,SE,128,0.0,1.0,70,0.00,,SKC,0.01,508.00,VWS V14.01,2013-01-12 19:08:00,
2013-01-12 14:10:00,70.3,60.1,30.12,SE,128,1.0,1.0,70,0.00,,SKC,0.01,490.00,VWS V14.01,2013-01-12 19:10:00,
2013-01-12 14:11:00,70.7,60.0,30.12,SE,128,1.0,1.0,69,0.00,,SKC,0.01,489.00,VWS V14.01,2013-01-12 19:11:00,
2013-01-12 14:12:00,70.7,60.0,30.12,SE,128,1.0,1.0,69,0.00,,SKC,0.01,489.00,VWS V14.01,2013-01-12 19:12:00,
2013-01-12 14:13:00,70.8,59.7,30.12,SE,128,0.0,1.0,68,0.00,,SKC,0.01,483.00,VWS V14.01,2013-01-12 19:13:00,
2013-01-12 14:15:00,70.9,59.4,30.12,SE,128,0.0,1.0,67,0.00,,SKC,0.01,464.00,VWS V14.01,2013-01-12 19:15:00,
2013-01-12 14:17:00,71.1,60.0,30.12,SE,128,2.0,2.0,68,0.00,,SKC,0.01,468.00,VWS V14.01,2013-01-12 19:17:00,
2013-01-12 14:18:00,71.2,59.7,30.12,SE,128,0.0,2.0,67,0.00,,SKC,0.01,469.00,VWS V14.01,2013-01-12 19:18:00,
2013-01-12 14:20:00,70.9,59.4,30.11,SE,128,2.0,3.0,67,0.00,,SKC,0.01,466.00,VWS V14.01,2013-01-12 19:20:00,
2013-01-12 14:22:00,70.7,59.2,30.11,SE,128,0.0,3.0,67,0.00,,SKC,0.01,455.00,VWS V14.01,2013-01-12 19:22:00,
2013-01-12 14:23:00,70.7,59.2,30.11,SE,128,3.0,4.0,67,0.00,,SKC,0.01,454.00,VWS V14.01,2013-01-12 19:23:00,
2013-01-12 14:25:00,70.7,59.6,30.11,SSW,209,2.0,4.0,68,0.00,,SKC,0.01,436.00,VWS V14.01,2013-01-12 19:25:00,
2013-01-12 14:27:00,70.8,59.7,30.11,SSE,148,3.0,5.0,68,0.00,,SKC,0.01,439.00,VWS V14.01,2013-01-12 19:27:00,
2013-01-12 14:29:00,70.8,59.3,30.12,SE,133,3.0,5.0,67,0.00,,SKC,0.01,434.00,VWS V14.01,2013-01-12 19:29:00,
2013-01-12 14:31:00,70.8,59.3,30.12,SE,143,2.0,5.0,67,0.00,,SKC,0.01,441.00,VWS V14.01,2013-01-12 19:31:00,
2013-01-12 14:32:00,70.8,59.3,30.12,SE,132,2.0,4.0,67,0.00,,SKC,0.01,441.00,VWS V14.01,2013-01-12 19:32:00,
2013-01-12 14:34:00,70.9,59.4,30.12,SSE,147,2.0,4.0,67,0.00,,SKC,0.01,441.00,VWS V14.01,2013-01-12 19:34:00,
2013-01-12 14:36:00,71.0,59.9,30.12,SSE,147,2.0,4.0,68,0.00,,SKC,0.01,438.00,VWS V14.01,2013-01-12 19:36:00,
2013-01-12 14:37:00,71.2,59.7,30.12,SE,143,2.0,4.0,67,0.00,,SKC,0.01,399.00,VWS V14.01,2013-01-12 19:37:00,
2013-01-12 14:39:00,71.2,59.7,30.12,SE,142,3.0,4.0,67,0.00,,SKC,0.01,413.00,VWS V14.01,2013-01-12 19:39:00,
2013-01-12 14:41:00,71.2,59.7,30.12,SE,142,2.0,4.0,67,0.00,,SKC,0.01,411.00,VWS V14.01,2013-01-12 19:41:00,
2013-01-12 14:42:00,71.3,59.8,30.12,SSW,205,3.0,4.0,67,0.00,,SKC,0.01,417.00,VWS V14.01,2013-01-12 19:42:00,
2013-01-12 14:45:00,71.7,60.2,30.12,SE,130,4.0,4.0,67,0.00,,SKC,0.01,353.00,VWS V14.01,2013-01-12 19:45:00,
2013-01-12 14:46:00,71.7,59.8,30.12,SE,129,2.0,4.0,66,0.00,,SKC,0.01,345.00,VWS V14.01,2013-01-12 19:46:00,
2013-01-12 14:47:00,71.7,59.8,30.12,SSE,159,2.0,4.0,66,0.00,,SKC,0.01,329.00,VWS V14.01,2013-01-12 19:47:00,
2013-01-12 14:50:00,71.4,59.5,30.12,SSW,212,2.0,5.0,66,0.00,,SKC,0.01,311.00,VWS V14.01,2013-01-12 19:50:00,
2013-01-12 14:51:00,71.2,59.3,30.12,SSW,212,2.0,5.0,66,0.00,,SKC,0.01,355.00,VWS V14.01,2013-01-12 19:51:00,
2013-01-12 14:52:00,71.3,59.4,30.12,SSW,212,1.0,5.0,66,0.00,,SKC,0.01,308.00,VWS V14.01,2013-01-12 19:52:00,
2013-01-12 14:55:00,71.9,59.9,30.12,SSW,212,0.0,5.0,66,0.00,,SKC,0.01,392.00,VWS V14.01,2013-01-12 19:55:00,
2013-01-12 14:56:00,72.4,60.0,30.12,SSW,212,0.0,5.0,65,0.00,,SKC,0.01,348.00,VWS V14.01,2013-01-12 19:56:00,
2013-01-12 14:57:00,72.8,59.9,30.12,SSW,212,0.0,5.0,64,0.00,,SKC,0.01,278.00,VWS V14.01,2013-01-12 19:57:00,
2013-01-12 15:00:00,72.8,59.5,30.12,SE,126,1.0,5.0,63,0.00,,SKC,0.01,308.00,VWS V14.01,2013-01-12 20:00:00,
2013-01-12 15:02:00,72.4,59.5,30.12,SE,126,1.0,2.0,64,0.00,,SKC,0.01,357.00,VWS V14.01,2013-01-12 20:02:00,
2013-01-12 15:05:00,71.8,59.4,30.12,SE,125,3.0,4.0,65,0.00,,SKC,0.01,244.00,VWS V14.01,2013-01-12 20:05:00,
2013-01-12 15:07:00,71.6,59.2,30.12,SE,125,0.0,4.0,65,0.00,,SKC,0.01,251.00,VWS V14.01,2013-01-12 20:07:00,
2013-01-12 15:08:00,71.6,59.2,30.12,SE,125,2.0,4.0,65,0.00,,SKC,0.01,258.00,VWS V14.01,2013-01-12 20:08:00,
2013-01-12 15:10:00,71.5,59.6,30.12,SE,125,1.0,4.0,66,0.00,,SKC,0.01,327.00,VWS V14.01,2013-01-12 20:10:00,
2013-01-12 15:12:00,71.5,59.6,30.12,SE,125,0.0,4.0,66,0.00,,SKC,0.01,295.00,VWS V14.01,2013-01-12 20:12:00,
2013-01-12 15:13:00,71.6,59.2,30.12,SE,125,2.0,4.0,65,0.00,,SKC,0.01,315.00,VWS V14.01,2013-01-12 20:13:00,
2013-01-12 15:16:00,71.5,59.1,30.12,SE,125,0.0,4.0,65,0.00,,SKC,0.01,392.00,VWS V14.01,2013-01-12 20:16:00,
2013-01-12 15:17:00,71.8,59.8,30.11,SE,125,0.0,4.0,66,0.00,,SKC,0.01,388.00,VWS V14.01,2013-01-12 20:17:00,
2013-01-12 15:18:00,72.0,60.0,30.11,SE,125,2.0,4.0,66,0.00,,SKC,0.01,380.00,VWS V14.01,2013-01-12 20:18:00,
2013-01-12 15:21:00,72.1,59.7,30.11,SE,125,1.0,4.0,65,0.00,,SKC,0.01,364.00,VWS V14.01,2013-01-12 20:21:00,
2013-01-12 15:22:00,72.2,59.8,30.11,SE,126,1.0,4.0,65,0.00,,SKC,0.01,366.00,VWS V14.01,2013-01-12 20:22:00,
2013-01-12 15:23:00,72.2,59.8,30.11,SE,126,3.0,4.0,65,0.00,,SKC,0.01,366.00,VWS V14.01,2013-01-12 20:23:00,
2013-01-12 15:24:00,72.2,59.8,30.11,SE,126,0.0,4.0,65,0.00,,SKC,0.01,360.00,VWS V14.01,2013-01-12 20:24:00,
2013-01-12 15:26:00,72.3,59.9,30.11,SE,126,1.0,4.0,65,0.00,,SKC,0.01,338.00,VWS V14.01,2013-01-12 20:26:00,
2013-01-12 15:27:00,72.3,59.5,30.11,SE,126,1.0,4.0,64,0.00,,SKC,0.01,336.00,VWS V14.01,2013-01-12 20:27:00,
2013-01-12 15:28:00,72.3,59.5,30.11,SE,126,4.0,4.0,64,0.00,,SKC,0.01,345.00,VWS V14.01,2013-01-12 20:28:00,
2013-01-12 15:29:00,72.3,59.5,30.11,SE,130,2.0,4.0,64,0.00,,SKC,0.01,348.00,VWS V14.01,2013-01-12 20:29:00,
2013-01-12 15:31:00,72.2,59.8,30.11,South,189,2.0,2.0,65,0.00,,SKC,0.01,341.00,VWS V14.01,2013-01-12 20:31:00,
2013-01-12 15:32:00,72.3,59.5,30.11,SE,140,3.0,5.0,64,0.00,,SKC,0.01,339.00,VWS V14.01,2013-01-12 20:32:00,
2013-01-12 15:33:00,72.3,59.5,30.11,SE,140,4.0,5.0,64,0.00,,SKC,0.01,336.00,VWS V14.01,2013-01-12 20:33:00,
2013-01-12 15:34:00,72.3,59.9,30.11,SE,138,1.0,5.0,65,0.00,,SKC,0.01,343.00,VWS V14.01,2013-01-12 20:34:00,
2013-01-12 15:36:00,72.2,59.8,30.11,SE,134,0.0,5.0,65,0.00,,SKC,0.01,336.00,VWS V14.01,2013-01-12 20:36:00,
2013-01-12 15:37:00,72.2,59.8,30.11,SE,134,3.0,5.0,65,0.00,,SKC,0.01,325.00,VWS V14.01,2013-01-12 20:37:00,
2013-01-12 15:38:00,72.2,59.8,30.11,SE,134,3.0,5.0,65,0.00,,SKC,0.01,267.00,VWS V14.01,2013-01-12 20:38:00,
2013-01-12 15:39:00,72.2,59.8,30.11,SE,146,3.0,5.0,65,0.00,,SKC,0.01,267.00,VWS V14.01,2013-01-12 20:39:00,
2013-01-12 15:42:00,72.2,59.8,30.11,SE,131,5.0,5.0,65,0.00,,SKC,0.01,334.00,VWS V14.01,2013-01-12 20:42:00,
2013-01-12 15:43:00,72.1,59.7,30.11,SE,136,3.0,5.0,65,0.00,,SKC,0.01,334.00,VWS V14.01,2013-01-12 20:43:00,
2013-01-12 15:44:00,72.1,60.1,30.11,SE,136,0.0,5.0,66,0.00,,SKC,0.01,316.00,VWS V14.01,2013-01-12 20:44:00,
2013-01-12 15:47:00,72.2,59.8,30.11,SE,136,0.0,5.0,65,0.00,,SKC,0.01,176.00,VWS V14.01,2013-01-12 20:47:00,
2013-01-12 15:48:00,72.3,59.9,30.12,SE,136,1.0,5.0,65,0.00,,SKC,0.01,223.00,VWS V14.01,2013-01-12 20:48:00,
2013-01-12 15:50:00,72.3,59.9,30.11,SE,136,3.0,5.0,65,0.00,,SKC,0.01,311.00,VWS V14.01,2013-01-12 20:50:00,
2013-01-12 15:52:00,72.2,59.8,30.11,SE,135,2.0,5.0,65,0.00,,SKC,0.01,272.00,VWS V14.01,2013-01-12 20:52:00,
2013-01-12 15:53:00,72.1,59.7,30.11,SE,135,1.0,5.0,65,0.00,,SKC,0.01,130.00,VWS V14.01,2013-01-12 20:53:00,
2013-01-12 15:54:00,72.1,60.1,30.11,SE,135,2.0,5.0,66,0.00,,SKC,0.01,114.00,VWS V14.01,2013-01-12 20:54:00,
2013-01-12 15:55:00,72.1,60.1,30.12,SE,140,1.0,5.0,66,0.00,,SKC,0.01,113.00,VWS V14.01,2013-01-12 20:55:00,
2013-01-12 15:57:00,72.2,59.8,30.12,SE,140,1.0,5.0,65,0.00,,SKC,0.01,104.00,VWS V14.01,2013-01-12 20:57:00,
2013-01-12 15:58:00,72.2,59.8,30.11,SE,140,2.0,5.0,65,0.00,,SKC,0.01,98.00,VWS V14.01,2013-01-12 20:58:00,
2013-01-12 15:59:00,72.2,59.8,30.11,SE,140,0.0,5.0,65,0.00,,SKC,0.01,98.00,VWS V14.01,2013-01-12 20:59:00,
2013-01-12 16:00:00,72.2,59.8,30.11,SE,140,0.0,5.0,65,0.00,,SKC,0.01,100.00,VWS V14.01,2013-01-12 21:00:00,
2013-01-12 16:02:00,72.2,59.8,30.11,SE,140,0.0,3.0,65,0.00,,SKC,0.01,102.00,VWS V14.01,2013-01-12 21:02:00,
2013-01-12 16:03:00,72.2,59.8,30.11,SE,140,0.0,3.0,65,0.00,,SKC,0.01,105.00,VWS V14.01,2013-01-12 21:03:00,
2013-01-12 16:04:00,72.3,59.9,30.11,SE,140,0.0,3.0,65,0.00,,SKC,0.01,105.00,VWS V14.01,2013-01-12 21:04:00,
2013-01-12 16:05:00,72.2,59.8,30.11,SE,140,0.0,3.0,65,0.00,,SKC,0.01,137.00,VWS V14.01,2013-01-12 21:05:00,
2013-01-12 16:07:00,72.2,59.8,30.11,SE,140,2.0,3.0,65,0.00,,SKC,0.01,113.00,VWS V14.01,2013-01-12 21:07:00,
2013-01-12 16:08:00,72.2,59.8,30.11,SE,140,2.0,3.0,65,0.00,,SKC,0.01,109.00,VWS V14.01,2013-01-12 21:08:00,
2013-01-12 16:09:00,72.2,59.8,30.11,SE,140,1.0,3.0,65,0.00,,SKC,0.01,109.00,VWS V14.01,2013-01-12 21:09:00,
2013-01-12 16:11:00,72.2,59.8,30.11,SE,140,3.0,3.0,65,0.00,,SKC,0.01,100.00,VWS V14.01,2013-01-12 21:11:00,
2013-01-12 16:12:00,72.1,59.7,30.11,SE,140,1.0,3.0,65,0.00,,SKC,0.01,102.00,VWS V14.01,2013-01-12 21:12:00,
2013-01-12 16:14:00,72.1,60.1,30.11,SE,140,0.0,3.0,66,0.00,,SKC,0.01,153.00,VWS V14.01,2013-01-12 21:14:00,
2013-01-12 16:16:00,72.0,60.0,30.11,SE,140,0.0,3.0,66,0.00,,SKC,0.01,118.00,VWS V14.01,2013-01-12 21:16:00,
2013-01-12 16:17:00,71.9,59.9,30.11,SE,140,0.0,3.0,66,0.00,,SKC,0.01,98.00,VWS V14.01,2013-01-12 21:17:00,
2013-01-12 16:19:00,71.9,59.9,30.11,SE,140,0.0,3.0,66,0.00,,SKC,0.01,121.00,VWS V14.01,2013-01-12 21:19:00,
2013-01-12 16:21:00,71.9,59.9,30.11,SE,140,0.0,3.0,66,0.00,,SKC,0.01,100.00,VWS V14.01,2013-01-12 21:21:00,
2013-01-12 16:22:00,71.9,59.9,30.11,SE,140,0.0,3.0,66,0.00,,SKC,0.01,83.00,VWS V14.01,2013-01-12 21:22:00,
2013-01-12 16:24:00,71.9,59.9,30.11,SE,140,0.0,3.0,66,0.00,,SKC,0.01,186.00,VWS V14.01,2013-01-12 21:24:00,
2013-01-12 16:26:00,71.7,59.8,30.11,SE,140,0.0,3.0,66,0.00,,SKC,0.01,172.00,VWS V14.01,2013-01-12 21:26:00,
2013-01-12 16:27:00,71.7,59.8,30.11,SE,140,2.0,3.0,66,0.00,,SKC,0.01,149.00,VWS V14.01,2013-01-12 21:27:00,
2013-01-12 16:29:00,71.7,59.8,30.11,SE,140,0.0,3.0,66,0.00,,SKC,0.01,137.00,VWS V14.01,2013-01-12 21:29:00,
2013-01-12 16:30:00,71.7,60.2,30.11,SE,140,0.0,3.0,67,0.00,,SKC,0.01,137.00,VWS V14.01,2013-01-12 21:30:00,
2013-01-12 16:31:00,71.7,60.2,30.11,SE,140,1.0,2.0,67,0.00,,SKC,0.01,107.00,VWS V14.01,2013-01-12 21:31:00,
2013-01-12 16:32:00,71.7,59.8,30.11,SE,140,0.0,2.0,66,0.00,,SKC,0.01,102.00,VWS V14.01,2013-01-12 21:32:00,
2013-01-12 16:34:00,71.8,59.8,30.11,SE,140,2.0,3.0,66,0.00,,SKC,0.01,114.00,VWS V14.01,2013-01-12 21:34:00,
2013-01-12 16:35:00,71.8,59.8,30.11,SE,140,1.0,3.0,66,0.00,,SKC,0.01,93.00,VWS V14.01,2013-01-12 21:35:00,
2013-01-12 16:36:00,71.8,59.8,30.11,SE,140,0.0,3.0,66,0.00,,SKC,0.01,93.00,VWS V14.01,2013-01-12 21:36:00,
2013-01-12 16:37:00,71.9,59.9,30.11,SE,140,1.0,3.0,66,0.00,,SKC,0.01,104.00,VWS V14.01,2013-01-12 21:37:00,
2013-01-12 16:39:00,71.9,59.9,30.11,SE,140,1.0,3.0,66,0.00,,SKC,0.01,107.00,VWS V14.01,2013-01-12 21:39:00,
2013-01-12 16:40:00,71.9,59.9,30.11,SE,140,3.0,3.0,66,0.00,,SKC,0.01,113.00,VWS V14.01,2013-01-12 21:40:00,
2013-01-12 16:42:00,72.0,60.0,30.11,SE,140,1.0,3.0,66,0.00,,SKC,0.01,100.00,VWS V14.01,2013-01-12 21:42:00,
2013-01-12 16:44:00,72.0,60.0,30.11,SE,140,0.0,3.0,66,0.00,,SKC,0.01,93.00,VWS V14.01,2013-01-12 21:44:00,
2013-01-12 16:45:00,72.0,60.0,30.11,SE,140,2.0,3.0,66,0.00,,SKC,0.01,90.00,VWS V14.01,2013-01-12 21:45:00,
2013-01-12 16:47:00,72.0,60.0,30.11,SE,140,2.0,3.0,66,0.00,,SKC,0.01,84.00,VWS V14.01,2013-01-12 21:47:00,
2013-01-12 16:48:00,72.0,60.0,30.11,SE,140,0.0,3.0,66,0.00,,SKC,0.01,65.00,VWS V14.01,2013-01-12 21:48:00,
2013-01-12 16:49:00,72.0,60.0,30.11,SE,140,0.0,3.0,66,0.00,,SKC,0.01,58.00,VWS V14.01,2013-01-12 21:49:00,
2013-01-12 16:51:00,71.9,59.9,30.11,SE,140,0.0,3.0,66,0.00,,SKC,0.01,54.00,VWS V14.01,2013-01-12 21:51:00,
2013-01-12 16:52:00,71.9,59.9,30.11,SE,140,1.0,3.0,66,0.00,,SKC,0.01,49.00,VWS V14.01,2013-01-12 21:52:00,
2013-01-12 16:53:00,71.9,59.9,30.11,SE,140,0.0,3.0,66,0.00,,SKC,0.01,42.00,VWS V14.01,2013-01-12 21:53:00,
2013-01-12 16:55:00,71.9,59.9,30.11,SE,140,0.0,3.0,66,0.00,,SKC,0.01,32.00,VWS V14.01,2013-01-12 21:55:00,
2013-01-12 16:56:00,71.8,59.8,30.11,SE,140,0.0,3.0,66,0.00,,SKC,0.01,30.00,VWS V14.01,2013-01-12 21:56:00,
2013-01-12 16:57:00,71.8,60.3,30.11,SE,140,0.0,3.0,67,0.00,,SKC,0.01,26.00,VWS V14.01,2013-01-12 21:57:00,
2013-01-12 16:58:00,71.8,59.8,30.11,SE,140,1.0,3.0,66,0.00,,SKC,0.01,23.00,VWS V14.01,2013-01-12 21:58:00,
2013-01-12 17:00:00,71.7,59.8,30.11,SE,140,0.0,3.0,66,0.00,,SKC,0.01,21.00,VWS V14.01,2013-01-12 22:00:00,
2013-01-12 17:01:00,71.7,60.2,30.11,SE,140,0.0,3.0,67,0.00,,SKC,0.01,21.00,VWS V14.01,2013-01-12 22:01:00,
2013-01-12 17:02:00,71.6,60.1,30.11,SE,140,2.0,2.0,67,0.00,,SKC,0.01,21.00,VWS V14.01,2013-01-12 22:02:00,
2013-01-12 17:03:00,71.5,60.0,30.11,SE,140,0.0,2.0,67,0.00,,SKC,0.01,19.00,VWS V14.01,2013-01-12 22:03:00,
2013-01-12 17:05:00,71.4,59.9,30.11,SE,140,0.0,2.0,67,0.00,,SKC,0.01,19.00,VWS V14.01,2013-01-12 22:05:00,
2013-01-12 17:06:00,71.3,59.8,30.11,SE,140,1.0,3.0,67,0.00,,SKC,0.01,18.00,VWS V14.01,2013-01-12 22:06:00,
2013-01-12 17:07:00,71.3,59.8,30.11,SE,140,1.0,3.0,67,0.00,,SKC,0.01,18.00,VWS V14.01,2013-01-12 22:07:00,
2013-01-12 17:08:00,71.2,59.7,30.11,SE,140,0.0,3.0,67,0.00,,SKC,0.01,18.00,VWS V14.01,2013-01-12 22:08:00,
2013-01-12 17:10:00,71.1,60.0,30.11,SE,140,0.0,3.0,68,0.00,,SKC,0.01,16.00,VWS V14.01,2013-01-12 22:10:00,
2013-01-12 17:11:00,71.1,60.0,30.11,SE,140,0.0,3.0,68,0.00,,SKC,0.01,14.00,VWS V14.01,2013-01-12 22:11:00,
2013-01-12 17:12:00,71.0,59.9,30.11,SE,140,1.0,3.0,68,0.00,,SKC,0.01,12.00,VWS V14.01,2013-01-12 22:12:00,
2013-01-12 17:13:00,71.0,59.9,30.12,SE,140,0.0,3.0,68,0.00,,SKC,0.01,12.00,VWS V14.01,2013-01-12 22:13:00,
2013-01-12 17:15:00,70.8,59.7,30.12,SE,140,0.0,3.0,68,0.00,,SKC,0.01,7.00,VWS V14.01,2013-01-12 22:15:00,
2013-01-12 17:16:00,70.8,59.7,30.12,SE,140,0.0,3.0,68,0.00,,SKC,0.01,7.00,VWS V14.01,2013-01-12 22:16:00,
2013-01-12 17:17:00,70.8,59.7,30.12,SE,140,0.0,3.0,68,0.00,,SKC,0.01,7.00,VWS V14.01,2013-01-12 22:17:00,
2013-01-12 17:18:00,70.7,59.6,30.12,SE,140,0.0,3.0,68,0.00,,SKC,0.01,5.00,VWS V14.01,2013-01-12 22:18:00,
2013-01-12 17:20:00,70.5,59.4,30.12,SE,140,0.0,3.0,68,0.00,,SKC,0.01,5.00,VWS V14.01,2013-01-12 22:20:00,
2013-01-12 17:21:00,70.4,59.8,30.12,SE,140,0.0,3.0,69,0.00,,SKC,0.01,0.00,VWS V14.01,2013-01-12 22:21:00,
2013-01-12 17:22:00,70.3,59.7,30.11,SE,140,0.0,3.0,69,0.00,,SKC,0.01,0.00,VWS V14.01,2013-01-12 22:22:00,
2013-01-12 17:24:00,70.2,59.6,30.11,SE,140,0.0,3.0,69,0.00,,SKC,0.01,0.00,VWS V14.01,2013-01-12 22:24:00,
2013-01-12 17:26:00,70.1,59.5,30.11,SE,140,0.0,3.0,69,0.00,,SKC,0.01,0.00,VWS V14.01,2013-01-12 22:26:00,
2013-01-12 17:28:00,70.1,59.5,30.11,SE,140,0.0,3.0,69,0.00,,SKC,0.01,0.00,VWS V14.01,2013-01-12 22:28:00,
2013-01-12 17:29:00,70.0,59.4,30.11,SE,140,0.0,3.0,69,0.00,,SKC,0.01,0.00,VWS V14.01,2013-01-12 22:29:00,
2013-01-12 17:31:00,70.0,59.8,30.11,SE,140,0.0,0.0,70,0.00,,SKC,0.01,0.00,VWS V14.01,2013-01-12 22:31:00,
2013-01-12 17:32:00,70.0,59.8,30.11,SE,140,0.0,0.0,70,0.00,,SKC,0.01,0.00,VWS V14.01,2013-01-12 22:32:00,
2013-01-12 17:33:00,69.9,59.7,30.11,SE,140,0.0,0.0,70,0.00,,SKC,0.01,0.00,VWS V14.01,2013-01-12 22:33:00,
2013-01-12 17:34:00,69.9,59.7,30.11,SE,140,0.0,0.0,70,0.00,,SKC,0.01,0.00,VWS V14.01,2013-01-12 22:34:00,
2013-01-12 17:36:00,69.7,59.5,30.11,SE,140,0.0,1.0,70,0.00,,SKC,0.01,0.00,VWS V14.01,2013-01-12 22:36:00,
2013-01-12 17:37:00,69.7,59.5,30.11,SE,140,0.0,1.0,70,0.00,,SKC,0.01,0.00,VWS V14.01,2013-01-12 22:37:00,
2013-01-12 17:38:00,69.7,59.9,30.11,SE,140,0.0,1.0,71,0.00,,SKC,0.01,0.00,VWS V14.01,2013-01-12 22:38:00,
2013-01-12 17:39:00,69.6,59.8,30.11,SE,140,0.0,1.0,71,0.00,,SKC,0.01,0.00,VWS V14.01,2013-01-12 22:39:00,
2013-01-12 17:41:00,69.5,59.7,30.11,SE,140,0.0,1.0,71,0.00,,SKC,0.01,0.00,VWS V14.01,2013-01-12 22:41:00,
2013-01-12 17:42:00,69.4,59.6,30.11,SE,140,0.0,1.0,71,0.00,,SKC,0.01,0.00,VWS V14.01,2013-01-12 22:42:00,
2013-01-12 17:43:00,69.4,59.6,30.11,SE,140,0.0,1.0,71,0.00,,SKC,0.01,0.00,VWS V14.01,2013-01-12 22:43:00,
2013-01-12 17:44:00,69.3,59.5,30.11,SE,140,0.0,1.0,71,0.00,,SKC,0.01,0.00,VWS V14.01,2013-01-12 22:44:00,
2013-01-12 17:46:00,69.2,59.8,30.11,SE,140,0.0,2.0,72,0.00,,SKC,0.01,0.00,VWS V14.01,2013-01-12 22:46:00,
2013-01-12 17:47:00,69.0,59.6,30.11,SE,140,0.0,2.0,72,0.00,,SKC,0.01,0.00,VWS V14.01,2013-01-12 22:47:00,
2013-01-12 17:48:00,68.9,59.5,30.11,SE,140,1.0,2.0,72,0.00,,SKC,0.01,0.00,VWS V14.01,2013-01-12 22:48:00,
2013-01-12 17:49:00,68.7,59.3,30.11,SE,140,1.0,2.0,72,0.00,,SKC,0.01,0.00,VWS V14.01,2013-01-12 22:49:00,
2013-01-12 17:51:00,68.5,59.5,30.11,SE,140,1.0,2.0,73,0.00,,SKC,0.01,0.00,VWS V14.01,2013-01-12 22:51:00,
2013-01-12 17:52:00,68.4,59.4,30.11,SE,140,0.0,2.0,73,0.00,,SKC,0.01,0.00,VWS V14.01,2013-01-12 22:52:00,
2013-01-12 17:53:00,68.3,59.3,30.11,SE,140,1.0,2.0,73,0.00,,SKC,0.01,0.00,VWS V14.01,2013-01-12 22:53:00,
2013-01-12 17:54:00,68.2,59.2,30.11,SE,140,1.0,2.0,73,0.00,,SKC,0.01,0.00,VWS V14.01,2013-01-12 22:54:00,
2013-01-12 17:56:00,68.1,59.5,30.11,SE,140,3.0,3.0,74,0.00,,SKC,0.01,0.00,VWS V14.01,2013-01-12 22:56:00,
2013-01-12 17:58:00,68.1,59.5,30.11,SE,140,0.0,3.0,74,0.00,,SKC,0.01,0.00,VWS V14.01,2013-01-12 22:58:00,
2013-01-12 17:59:00,68.0,59.4,30.11,SE,140,1.0,3.0,74,0.00,,SKC,0.01,0.00,VWS V14.01,2013-01-12 22:59:00,
2013-01-12 18:02:00,67.9,59.3,30.11,SE,138,2.0,3.0,74,0.00,,SKC,0.01,0.00,VWS V14.01,2013-01-12 23:02:00,
2013-01-12 18:03:00,67.8,59.2,30.11,SE,138,0.0,3.0,74,0.00,,SKC,0.01,0.00,VWS V14.01,2013-01-12 23:03:00,
2013-01-12 18:04:00,67.8,59.6,30.11,SE,137,3.0,4.0,75,0.00,,SKC,0.01,0.00,VWS V14.01,2013-01-12 23:04:00,
2013-01-12 18:07:00,67.7,59.5,30.11,SE,134,1.0,4.0,75,0.00,,SKC,0.01,0.00,VWS V14.01,2013-01-12 23:07:00,
2013-01-12 18:08:00,67.7,59.5,30.11,SE,134,0.0,4.0,75,0.00,,SKC,0.01,0.00,VWS V14.01,2013-01-12 23:08:00,
2013-01-12 18:09:00,67.6,59.4,30.11,SE,134,0.0,4.0,75,0.00,,SKC,0.01,0.00,VWS V14.01,2013-01-12 23:09:00,
2013-01-12 18:12:00,67.5,59.7,30.11,ESE,121,2.0,4.0,76,0.00,,SKC,0.01,0.00,VWS V14.01,2013-01-12 23:12:00,
2013-01-12 18:13:00,67.4,59.6,30.11,ESE,121,1.0,4.0,76,0.00,,SKC,0.01,0.00,VWS V14.01,2013-01-12 23:13:00,
2013-01-12 18:14:00,67.4,59.6,30.11,ESE,121,0.0,4.0,76,0.00,,SKC,0.01,0.00,VWS V14.01,2013-01-12 23:14:00,
2013-01-12 18:15:00,67.4,59.6,30.11,ESE,121,2.0,4.0,76,0.00,,SKC,0.01,0.00,VWS V14.01,2013-01-12 23:15:00,
2013-01-12 18:18:00,67.2,59.8,30.11,ESE,121,2.0,4.0,77,0.00,,SKC,0.01,0.00,VWS V14.01,2013-01-12 23:18:00,
2013-01-12 18:19:00,67.2,59.8,30.11,ESE,121,0.0,4.0,77,0.00,,SKC,0.01,0.00,VWS V14.01,2013-01-12 23:19:00,
2013-01-12 18:20:00,67.1,59.7,30.11,ESE,121,1.0,4.0,77,0.00,,SKC,0.01,0.00,VWS V14.01,2013-01-12 23:20:00,
2013-01-12 18:23:00,67.0,59.9,30.11,ESE,121,2.0,4.0,78,0.00,,SKC,0.01,0.00,VWS V14.01,2013-01-12 23:23:00,
2013-01-12 18:24:00,67.0,59.9,30.11,ESE,121,1.0,4.0,78,0.00,,SKC,0.01,0.00,VWS V14.01,2013-01-12 23:24:00,
2013-01-12 18:25:00,66.9,59.8,30.11,ESE,121,1.0,4.0,78,0.00,,SKC,0.01,0.00,VWS V14.01,2013-01-12 23:25:00,
2013-01-12 18:28:00,66.8,59.7,30.11,ESE,117,1.0,4.0,78,0.00,,SKC,0.01,0.00,VWS V14.01,2013-01-12 23:28:00,
2013-01-12 18:29:00,66.8,59.7,30.11,ESE,117,0.0,4.0,78,0.00,,SKC,0.01,0.00,VWS V14.01,2013-01-12 23:29:00,
2013-01-12 18:30:00,66.8,59.7,30.11,ESE,117,0.0,4.0,78,0.00,,SKC,0.01,0.00,VWS V14.01,2013-01-12 23:30:00,
2013-01-12 18:33:00,66.7,59.6,30.10,ESE,117,1.0,2.0,78,0.00,,SKC,0.01,0.00,VWS V14.01,2013-01-12 23:33:00,
2013-01-12 18:34:00,66.6,59.5,30.10,ESE,117,0.0,2.0,78,0.00,,SKC,0.01,0.00,VWS V14.01,2013-01-12 23:34:00,
2013-01-12 18:35:00,66.6,59.5,30.11,ESE,117,0.0,2.0,78,0.00,,SKC,0.01,0.00,VWS V14.01,2013-01-12 23:35:00,
2013-01-12 18:38:00,66.4,59.3,30.10,ESE,107,1.0,3.0,78,0.00,,SKC,0.01,0.00,VWS V14.01,2013-01-12 23:38:00,
2013-01-12 18:39:00,66.3,59.2,30.10,East,80,2.0,3.0,78,0.00,,SKC,0.01,0.00,VWS V14.01,2013-01-12 23:39:00,
2013-01-12 18:40:00,66.3,59.2,30.11,ENE,64,2.0,3.0,78,0.00,,SKC,0.01,0.00,VWS V14.01,2013-01-12 23:40:00,
2013-01-12 18:44:00,66.0,59.3,30.11,ENE,61,1.0,3.0,79,0.00,,SKC,0.01,0.00,VWS V14.01,2013-01-12 23:44:00,
2013-01-12 18:45:00,65.9,59.2,30.11,ENE,61,0.0,3.0,79,0.00,,SKC,0.01,0.00,VWS V14.01,2013-01-12 23:45:00,
2013-01-12 18:49:00,65.6,58.6,30.11,ENE,61,0.0,3.0,78,0.00,,SKC,0.01,0.00,VWS V14.01,2013-01-12 23:49:00,
2013-01-12 18:50:00,65.4,58.4,30.11,ENE,61,0.0,3.0,78,0.00,,SKC,0.01,0.00,VWS V14.01,2013-01-12 23:50:00,
2013-01-12 18:54:00,65.1,58.8,30.11,ENE,61,0.0,3.0,80,0.00,,SKC,0.01,0.00,VWS V14.01,2013-01-12 23:54:00,
2013-01-12 18:55:00,65.0,58.7,30.11,ENE,61,0.0,3.0,80,0.00,,SKC,0.01,0.00,VWS V14.01,2013-01-12 23:55:00,
2013-01-12 18:56:00,65.0,58.7,30.11,ENE,61,0.0,3.0,80,0.00,,SKC,0.01,0.00,VWS V14.01,2013-01-12 23:56:00,
2013-01-12 18:59:00,64.9,58.9,30.11,ENE,61,0.0,3.0,81,0.00,,SKC,0.01,0.00,VWS V14.01,2013-01-12 23:59:00,
2013-01-12 19:00:00,64.8,58.5,30.11,ENE,61,0.0,3.0,80,0.00,,SKC,0.01,0.00,VWS V14.01,2013-01-13 00:00:00,
2013-01-12 19:01:00,64.8,58.5,30.10,ENE,61,0.0,3.0,80,0.00,,SKC,0.01,0.00,VWS V14.01,2013-01-13 00:01:00,
2013-01-12 19:04:00,64.5,58.5,30.10,ENE,61,1.0,1.0,81,0.00,,SKC,0.01,0.00,VWS V14.01,2013-01-13 00:04:00,
2013-01-12 19:05:00,64.5,58.5,30.10,ENE,61,0.0,1.0,81,0.00,,SKC,0.01,0.00,VWS V14.01,2013-01-13 00:05:00,
2013-01-12 19:06:00,64.4,58.5,30.10,ENE,61,0.0,1.0,81,0.00,,SKC,0.01,0.00,VWS V14.01,2013-01-13 00:06:00,
2013-01-12 19:09:00,64.3,58.7,30.11,ENE,61,2.0,3.0,82,0.00,,SKC,0.01,0.00,VWS V14.01,2013-01-13 00:09:00,
2013-01-12 19:10:00,64.3,58.7,30.11,ENE,61,0.0,3.0,82,0.00,,SKC,0.01,0.00,VWS V14.01,2013-01-13 00:10:00,
2013-01-12 19:11:00,64.3,58.7,30.11,ENE,61,0.0,3.0,82,0.00,,SKC,0.01,0.00,VWS V14.01,2013-01-13 00:11:00,
2013-01-12 19:14:00,64.1,58.5,30.11,ENE,61,0.0,3.0,82,0.00,,SKC,0.01,0.00,VWS V14.01,2013-01-13 00:14:00,
2013-01-12 19:15:00,64.1,58.5,30.11,ENE,61,0.0,3.0,82,0.00,,SKC,0.01,0.00,VWS V14.01,2013-01-13 00:15:00,
2013-01-12 19:16:00,64.1,58.5,30.11,ENE,61,0.0,3.0,82,0.00,,SKC,0.01,0.00,VWS V14.01,2013-01-13 00:16:00,
2013-01-12 19:19:00,64.0,58.7,30.11,ENE,61,0.0,3.0,83,0.00,,SKC,0.01,0.00,VWS V14.01,2013-01-13 00:19:00,
2013-01-12 19:21:00,64.0,58.7,30.11,ENE,61,0.0,3.0,83,0.00,,SKC,0.01,0.00,VWS V14.01,2013-01-13 00:21:00,
2013-01-12 19:22:00,63.9,58.6,30.11,ENE,61,0.0,3.0,83,0.00,,SKC,0.01,0.00,VWS V14.01,2013-01-13 00:22:00,
2013-01-12 19:24:00,63.8,58.9,30.11,ENE,61,0.0,3.0,84,0.00,,SKC,0.01,0.00,VWS V14.01,2013-01-13 00:24:00,
2013-01-12 19:26:00,63.8,58.9,30.11,ENE,61,0.0,3.0,84,0.00,,SKC,0.01,0.00,VWS V14.01,2013-01-13 00:26:00,
2013-01-12 19:27:00,63.7,58.8,30.11,ENE,61,0.0,3.0,84,0.00,,SKC,0.01,0.00,VWS V14.01,2013-01-13 00:27:00,
2013-01-12 19:30:00,63.6,58.3,30.11,ENE,61,0.0,3.0,83,0.00,,SKC,0.01,0.00,VWS V14.01,2013-01-13 00:30:00,
2013-01-12 19:31:00,63.6,58.7,30.11,ENE,61,0.0,3.0,84,0.00,,SKC,0.01,0.00,VWS V14.01,2013-01-13 00:31:00,
2013-01-12 19:32:00,63.5,58.2,30.11,ENE,61,0.0,0.0,83,0.00,,SKC,0.01,0.00,VWS V14.01,2013-01-13 00:32:00,
2013-01-12 19:35:00,63.1,58.2,30.11,ENE,61,0.0,0.0,84,0.00,,SKC,0.01,0.00,VWS V14.01,2013-01-13 00:35:00,
2013-01-12 19:37:00,63.0,58.4,30.11,ENE,61,0.0,0.0,85,0.00,,SKC,0.01,0.00,VWS V14.01,2013-01-13 00:37:00,
2013-01-12 19:38:00,63.0,58.4,30.11,ENE,61,0.0,0.0,85,0.00,,SKC,0.01,0.00,VWS V14.01,2013-01-13 00:38:00,
2013-01-12 19:40:00,62.9,58.3,30.11,ENE,61,0.0,0.0,85,0.00,,SKC,0.01,0.00,VWS V14.01,2013-01-13 00:40:00,
2013-01-12 19:42:00,62.9,58.3,30.11,ENE,61,0.0,1.0,85,0.00,,SKC,0.01,0.00,VWS V14.01,2013-01-13 00:42:00,
2013-01-12 19:43:00,62.9,58.7,30.11,ENE,61,0.0,1.0,86,0.00,,SKC,0.01,0.00,VWS V14.01,2013-01-13 00:43:00,
2013-01-12 19:45:00,62.9,58.7,30.11,ENE,61,0.0,1.0,86,0.00,,SKC,0.01,0.00,VWS V14.01,2013-01-13 00:45:00,
2013-01-12 19:47:00,62.9,58.7,30.11,ENE,61,0.0,1.0,86,0.00,,SKC,0.01,0.00,VWS V14.01,2013-01-13 00:47:00,
2013-01-12 19:48:00,62.9,58.7,30.11,ENE,61,0.0,1.0,86,0.00,,SKC,0.01,0.00,VWS V14.01,2013-01-13 00:48:00,
2013-01-12 19:50:00,62.8,58.2,30.11,ENE,61,0.0,1.0,85,0.00,,SKC,0.01,0.00,VWS V14.01,2013-01-13 00:50:00,
2013-01-12 19:52:00,62.7,58.1,30.11,ENE,61,1.0,1.0,85,0.00,,SKC,0.01,0.00,VWS V14.01,2013-01-13 00:52:00,
2013-01-12 19:53:00,62.7,58.1,30.11,ENE,61,1.0,1.0,85,0.00,,SKC,0.01,0.00,VWS V14.01,2013-01-13 00:53:00,
2013-01-12 19:55:00,62.5,57.9,30.11,ENE,61,0.0,2.0,85,0.00,,SKC,0.01,0.00,VWS V14.01,2013-01-13 00:55:00,
2013-01-12 19:57:00,62.4,57.8,30.11,ENE,61,0.0,2.0,85,0.00,,SKC,0.01,0.00,VWS V14.01,2013-01-13 00:57:00,
2013-01-12 19:58:00,62.3,57.7,30.11,ENE,61,1.0,2.0,85,0.00,,SKC,0.01,0.00,VWS V14.01,2013-01-13 00:58:00,
2013-01-12 20:00:00,62.3,58.1,30.11,ENE,61,0.0,2.0,86,0.00,,SKC,0.01,0.00,VWS V14.01,2013-01-13 01:00:00,
2013-01-12 20:02:00,62.2,58.0,30.11,ENE,61,0.0,1.0,86,0.00,,SKC,0.01,0.00,VWS V14.01,2013-01-13 01:02:00,
2013-01-12 20:03:00,62.1,57.9,30.11,ENE,61,0.0,1.0,86,0.00,,SKC,0.01,0.00,VWS V14.01,2013-01-13 01:03:00,
2013-01-12 20:06:00,62.0,58.1,30.11,ENE,61,0.0,1.0,87,0.00,,SKC,0.01,0.00,VWS V14.01,2013-01-13 01:06:00,
2013-01-12 20:07:00,62.0,58.1,30.11,ENE,61,0.0,1.0,87,0.00,,SKC,0.01,0.00,VWS V14.01,2013-01-13 01:07:00,
2013-01-12 20:08:00,61.9,58.0,30.11,ENE,61,2.0,2.0,87,0.00,,SKC,0.01,0.00,VWS V14.01,2013-01-13 01:08:00,
2013-01-12 20:11:00,61.8,57.9,30.11,ENE,61,0.0,2.0,87,0.00,,SKC,0.01,0.00,VWS V14.01,2013-01-13 01:11:00,
2013-01-12 20:12:00,61.7,57.8,30.11,ENE,61,0.0,2.0,87,0.00,,SKC,0.01,0.00,VWS V14.01,2013-01-13 01:12:00,
2013-01-12 20:13:00,61.6,57.7,30.11,ENE,61,0.0,2.0,87,0.00,,SKC,0.01,0.00,VWS V14.01,2013-01-13 01:13:00,
2013-01-12 20:16:00,61.5,57.6,30.11,ENE,61,1.0,2.0,87,0.00,,SKC,0.01,0.00,VWS V14.01,2013-01-13 01:16:00,
2013-01-12 20:18:00,61.4,57.8,30.11,ENE,61,1.0,2.0,88,0.00,,SKC,0.01,0.00,VWS V14.01,2013-01-13 01:18:00,
2013-01-12 20:19:00,61.4,57.8,30.11,ENE,61,1.0,2.0,88,0.00,,SKC,0.01,0.00,VWS V14.01,2013-01-13 01:19:00,
2013-01-12 20:21:00,61.3,57.7,30.11,ENE,61,1.0,2.0,88,0.00,,SKC,0.01,0.00,VWS V14.01,2013-01-13 01:21:00,
2013-01-12 20:23:00,61.2,57.6,30.11,ENE,61,2.0,2.0,88,0.00,,SKC,0.01,0.00,VWS V14.01,2013-01-13 01:23:00,
2013-01-12 20:24:00,61.2,57.9,30.11,ENE,61,2.0,2.0,89,0.00,,SKC,0.01,0.00,VWS V14.01,2013-01-13 01:24:00,
2013-01-12 20:26:00,61.2,57.9,30.11,ENE,61,2.0,3.0,89,0.00,,SKC,0.01,0.00,VWS V14.01,2013-01-13 01:26:00,
2013-01-12 20:28:00,61.2,58.2,30.11,ENE,60,2.0,3.0,90,0.00,,SKC,0.01,0.00,VWS V14.01,2013-01-13 01:28:00,
2013-01-12 20:29:00,61.2,58.2,30.11,ENE,59,3.0,3.0,90,0.00,,SKC,0.01,0.00,VWS V14.01,2013-01-13 01:29:00,
2013-01-12 20:31:00,61.2,58.2,30.11,ENE,59,0.0,0.0,90,0.00,,SKC,0.01,0.00,VWS V14.01,2013-01-13 01:31:00,
2013-01-12 20:33:00,61.1,58.2,30.11,ENE,59,0.0,2.0,90,0.00,,SKC,0.01,0.00,VWS V14.01,2013-01-13 01:33:00,
2013-01-12 20:34:00,61.1,58.2,30.11,ENE,59,1.0,2.0,90,0.00,,SKC,0.01,0.00,VWS V14.01,2013-01-13 01:34:00,
2013-01-12 20:37:00,61.1,58.2,30.11,ENE,59,0.0,2.0,90,0.00,,SKC,0.01,0.00,VWS V14.01,2013-01-13 01:37:00,
2013-01-12 20:38:00,61.1,58.2,30.11,ENE,59,3.0,3.0,90,0.00,,SKC,0.01,0.00,VWS V14.01,2013-01-13 01:38:00,
2013-01-12 20:39:00,61.1,58.2,30.11,ENE,59,1.0,3.0,90,0.00,,SKC,0.01,0.00,VWS V14.01,2013-01-13 01:39:00,
2013-01-12 20:42:00,61.1,58.2,30.11,ENE,59,2.0,3.0,90,0.00,,SKC,0.01,0.00,VWS V14.01,2013-01-13 01:42:00,
2013-01-12 20:43:00,61.1,58.2,30.11,ENE,59,2.0,3.0,90,0.00,,SKC,0.01,0.00,VWS V14.01,2013-01-13 01:43:00,
2013-01-12 20:44:00,61.1,58.2,30.11,ENE,59,2.0,3.0,90,0.00,,SKC,0.01,0.00,VWS V14.01,2013-01-13 01:44:00,
2013-01-12 20:47:00,61.0,58.0,30.11,ENE,59,0.0,3.0,90,0.00,,SKC,0.01,0.00,VWS V14.01,2013-01-13 01:47:00,
2013-01-12 20:48:00,61.0,58.0,30.11,ENE,59,0.0,3.0,90,0.00,,SKC,0.01,0.00,VWS V14.01,2013-01-13 01:48:00,
2013-01-12 20:49:00,61.0,58.4,30.11,ENE,59,0.0,3.0,91,0.00,,SKC,0.01,0.00,VWS V14.01,2013-01-13 01:49:00,
2013-01-12 20:52:00,60.9,58.3,30.11,ENE,59,1.0,3.0,91,0.00,,SKC,0.01,0.00,VWS V14.01,2013-01-13 01:52:00,
2013-01-12 20:53:00,60.9,58.3,30.11,ENE,59,0.0,3.0,91,0.00,,SKC,0.01,0.00,VWS V14.01,2013-01-13 01:53:00,
2013-01-12 20:54:00,60.9,58.3,30.11,ENE,59,0.0,3.0,91,0.00,,SKC,0.01,0.00,VWS V14.01,2013-01-13 01:54:00,
2013-01-12 20:57:00,60.9,58.3,30.11,ENE,59,0.0,3.0,91,0.00,,SKC,0.01,0.00,VWS V14.01,2013-01-13 01:57:00,
2013-01-12 20:58:00,60.9,58.3,30.11,ENE,59,1.0,3.0,91,0.00,,SKC,0.01,0.00,VWS V14.01,2013-01-13 01:58:00,
2013-01-12 20:59:00,60.8,58.2,30.11,ENE,59,0.0,3.0,91,0.00,,SKC,0.01,0.00,VWS V14.01,2013-01-13 01:59:00,
2013-01-12 21:02:00,60.7,58.1,30.11,ENE,59,0.0,0.0,91,0.00,,SKC,0.01,0.00,VWS V14.01,2013-01-13 02:02:00,
2013-01-12 21:04:00,60.7,58.1,30.11,ENE,59,1.0,1.0,91,0.00,,SKC,0.01,0.00,VWS V14.01,2013-01-13 02:04:00,
2013-01-12 21:05:00,60.6,58.0,30.11,ENE,59,1.0,1.0,91,0.00,,SKC,0.01,0.00,VWS V14.01,2013-01-13 02:05:00,
2013-01-12 21:07:00,60.6,58.0,30.11,ENE,59,1.0,2.0,91,0.00,,SKC,0.01,0.00,VWS V14.01,2013-01-13 02:07:00,
2013-01-12 21:09:00,60.5,57.9,30.11,ENE,59,2.0,3.0,91,0.00,,SKC,0.01,0.00,VWS V14.01,2013-01-13 02:09:00,
2013-01-12 21:10:00,60.5,57.9,30.11,ENE,59,1.0,3.0,91,0.00,,SKC,0.01,0.00,VWS V14.01,2013-01-13 02:10:00,
2013-01-12 21:12:00,60.5,57.9,30.11,ENE,59,1.0,3.0,91,0.00,,SKC,0.01,0.00,VWS V14.01,2013-01-13 02:12:00,
2013-01-12 21:14:00,60.4,57.8,30.10,ENE,59,2.0,3.0,91,0.00,,SKC,0.01,0.00,VWS V14.01,2013-01-13 02:14:00,
2013-01-12 21:15:00,60.4,57.8,30.10,ENE,59,1.0,3.0,91,0.00,,SKC,0.01,0.00,VWS V14.01,2013-01-13 02:15:00,
2013-01-12 21:17:00,60.3,57.7,30.10,ENE,59,1.0,3.0,91,0.00,,SKC,0.01,0.00,VWS V14.01,2013-01-13 02:17:00,
2013-01-12 21:19:00,60.2,57.6,30.10,ENE,59,2.0,3.0,91,0.00,,SKC,0.01,0.00,VWS V14.01,2013-01-13 02:19:00,
2013-01-12 21:20:00,60.1,57.5,30.10,ENE,59,2.0,3.0,91,0.00,,SKC,0.01,0.00,VWS V14.01,2013-01-13 02:20:00,
2013-01-12 21:23:00,60.0,57.4,30.10,NE,41,1.0,4.0,91,0.00,,SKC,0.01,0.00,VWS V14.01,2013-01-13 02:23:00,
2013-01-12 21:24:00,59.9,57.3,30.10,NE,41,1.0,4.0,91,0.00,,SKC,0.01,0.00,VWS V14.01,2013-01-13 02:24:00,
2013-01-12 21:25:00,59.9,57.3,30.10,NE,41,0.0,4.0,91,0.00,,SKC,0.01,0.00,VWS V14.01,2013-01-13 02:25:00,
2013-01-12 21:28:00,59.9,57.6,30.10,NE,41,0.0,4.0,92,0.00,,SKC,0.01,0.00,VWS V14.01,2013-01-13 02:28:00,
2013-01-12 21:29:00,59.8,57.5,30.10,NE,41,1.0,4.0,92,0.00,,SKC,0.01,0.00,VWS V14.01,2013-01-13 02:29:00,
2013-01-12 21:30:00,59.8,57.5,30.10,NE,41,1.0,4.0,92,0.00,,SKC,0.01,0.00,VWS V14.01,2013-01-13 02:30:00,
2013-01-12 21:33:00,59.7,57.4,30.11,NE,41,0.0,3.0,92,0.00,,SKC,0.01,0.00,VWS V14.01,2013-01-13 02:33:00,
2013-01-12 21:34:00,59.6,57.3,30.10,NE,41,0.0,3.0,92,0.00,,SKC,0.01,0.00,VWS V14.01,2013-01-13 02:34:00,
2013-01-12 21:35:00,59.6,57.3,30.10,NE,41,1.0,3.0,92,0.00,,SKC,0.01,0.00,VWS V14.01,2013-01-13 02:35:00,
2013-01-12 21:38:00,59.6,57.3,30.10,NE,41,2.0,3.0,92,0.00,,SKC,0.01,0.00,VWS V14.01,2013-01-13 02:38:00,
2013-01-12 21:39:00,59.6,57.6,30.10,NE,41,1.0,3.0,93,0.00,,SKC,0.01,0.00,VWS V14.01,2013-01-13 02:39:00,
2013-01-12 21:40:00,59.6,57.6,30.10,NE,41,2.0,3.0,93,0.00,,SKC,0.01,0.00,VWS V14.01,2013-01-13 02:40:00,
2013-01-12 21:41:00,59.6,57.6,30.10,NE,41,3.0,3.0,93,0.00,,SKC,0.01,0.00,VWS V14.01,2013-01-13 02:41:00,
2013-01-12 21:43:00,59.7,57.7,30.10,NE,41,3.0,4.0,93,0.00,,SKC,0.01,0.00,VWS V14.01,2013-01-13 02:43:00,
2013-01-12 21:45:00,59.7,57.7,30.10,NE,40,2.0,4.0,93,0.00,,SKC,0.01,0.00,VWS V14.01,2013-01-13 02:45:00,
2013-01-12 21:46:00,59.7,57.7,30.10,NE,40,2.0,4.0,93,0.00,,SKC,0.01,0.00,VWS V14.01,2013-01-13 02:46:00,
2013-01-12 21:48:00,59.7,57.7,30.10,NE,37,2.0,4.0,93,0.00,,SKC,0.01,0.00,VWS V14.01,2013-01-13 02:48:00,
2013-01-12 21:50:00,59.7,57.7,30.10,NE,37,2.0,4.0,93,0.00,,SKC,0.01,0.00,VWS V14.01,2013-01-13 02:50:00,
2013-01-12 21:51:00,59.7,57.7,30.10,NE,37,3.0,4.0,93,0.00,,SKC,0.01,0.00,VWS V14.01,2013-01-13 02:51:00,
2013-01-12 21:53:00,59.8,57.8,30.10,NE,37,2.0,4.0,93,0.00,,SKC,0.01,0.00,VWS V14.01,2013-01-13 02:53:00,
2013-01-12 21:55:00,59.7,57.7,30.10,NE,37,1.0,4.0,93,0.00,,SKC,0.01,0.00,VWS V14.01,2013-01-13 02:55:00,
2013-01-12 21:57:00,59.7,57.7,30.10,NE,40,3.0,4.0,93,0.00,,SKC,0.01,0.00,VWS V14.01,2013-01-13 02:57:00,
2013-01-12 21:58:00,59.7,57.7,30.10,NE,40,1.0,4.0,93,0.00,,SKC,0.01,0.00,VWS V14.01,2013-01-13 02:58:00,
2013-01-12 22:00:00,59.6,57.6,30.10,NE,40,2.0,4.0,93,0.00,,SKC,0.01,0.00,VWS V14.01,2013-01-13 03:00:00,
2013-01-12 22:02:00,59.6,57.6,30.10,NE,40,1.0,2.0,93,0.00,,SKC,0.01,0.00,VWS V14.01,2013-01-13 03:02:00,
2013-01-12 22:03:00,59.6,57.6,30.10,NNE,28,2.0,5.0,93,0.00,,SKC,0.01,0.00,VWS V14.01,2013-01-13 03:03:00,
2013-01-12 22:05:00,59.5,57.5,30.10,NNE,28,1.0,5.0,93,0.00,,SKC,0.01,0.00,VWS V14.01,2013-01-13 03:05:00,
2013-01-12 22:08:00,59.5,57.5,30.10,NNE,27,4.0,5.0,93,0.00,,SKC,0.01,0.00,VWS V14.01,2013-01-13 03:08:00,
2013-01-12 22:09:00,59.5,57.5,30.10,NNE,28,1.0,5.0,93,0.00,,SKC,0.01,0.00,VWS V14.01,2013-01-13 03:09:00,
2013-01-12 22:11:00,59.5,57.5,30.10,NNE,28,3.0,5.0,93,0.00,,SKC,0.01,0.00,VWS V14.01,2013-01-13 03:11:00,
2013-01-12 22:13:00,59.5,57.5,30.10,NNE,24,2.0,5.0,93,0.00,,SKC,0.01,0.00,VWS V14.01,2013-01-13 03:13:00,
2013-01-12 22:14:00,59.5,57.5,30.10,NNE,23,3.0,5.0,93,0.00,,SKC,0.01,0.00,VWS V14.01,2013-01-13 03:14:00,
2013-01-12 22:16:00,59.5,57.5,30.10,NNE,17,3.0,6.0,93,0.00,,SKC,0.01,0.00,VWS V14.01,2013-01-13 03:16:00,
2013-01-12 22:18:00,59.5,57.8,30.10,NNE,24,2.0,6.0,94,0.00,,SKC,0.01,0.00,VWS V14.01,2013-01-13 03:18:00,
2013-01-12 22:19:00,59.5,57.8,30.10,NE,38,1.0,6.0,94,0.00,,SKC,0.01,0.00,VWS V14.01,2013-01-13 03:19:00,
2013-01-12 22:21:00,59.6,57.6,30.10,NE,51,2.0,6.0,93,0.00,,SKC,0.01,0.00,VWS V14.01,2013-01-13 03:21:00,
2013-01-12 22:23:00,59.6,57.9,30.10,NE,51,1.0,6.0,94,0.00,,SKC,0.01,0.00,VWS V14.01,2013-01-13 03:23:00,
2013-01-12 22:24:00,59.6,57.9,30.10,NE,49,1.0,6.0,94,0.00,,SKC,0.01,0.00,VWS V14.01,2013-01-13 03:24:00,
2013-01-12 22:26:00,59.6,57.9,30.10,NE,46,1.0,6.0,94,0.00,,SKC,0.01,0.00,VWS V14.01,2013-01-13 03:26:00,
2013-01-12 22:28:00,59.6,57.9,30.10,NNE,32,5.0,6.0,94,0.00,,SKC,0.01,0.00,VWS V14.01,2013-01-13 03:28:00,
2013-01-12 22:29:00,59.6,57.9,30.10,NNE,20,1.0,6.0,94,0.00,,SKC,0.01,0.00,VWS V14.01,2013-01-13 03:29:00,
2013-01-12 22:31:00,59.6,57.9,30.10,NNE,26,1.0,1.0,94,0.00,,SKC,0.01,0.00,VWS V14.01,2013-01-13 03:31:00,
2013-01-12 22:32:00,59.6,57.9,30.10,NNE,26,0.0,2.0,94,0.00,,SKC,0.01,0.00,VWS V14.01,2013-01-13 03:32:00,
2013-01-12 22:33:00,59.6,57.9,30.10,NE,46,3.0,3.0,94,0.00,,SKC,0.01,0.00,VWS V14.01,2013-01-13 03:33:00,
2013-01-12 22:34:00,59.6,57.9,30.10,NE,43,3.0,4.0,94,0.00,,SKC,0.01,0.00,VWS V14.01,2013-01-13 03:34:00,
2013-01-12 22:36:00,59.6,57.9,30.10,ENE,58,3.0,4.0,94,0.00,,SKC,0.01,0.00,VWS V14.01,2013-01-13 03:36:00,
2013-01-12 22:37:00,59.6,57.9,30.10,NE,55,3.0,4.0,94,0.00,,SKC,0.01,0.00,VWS V14.01,2013-01-13 03:37:00,
2013-01-12 22:38:00,59.6,57.9,30.10,NE,55,0.0,4.0,94,0.00,,SKC,0.01,0.00,VWS V14.01,2013-01-13 03:38:00,
2013-01-12 22:40:00,59.6,57.9,30.10,ENE,59,2.0,4.0,94,0.00,,SKC,0.01,0.00,VWS V14.01,2013-01-13 03:40:00,
2013-01-12 22:42:00,59.5,57.8,30.10,ENE,62,2.0,4.0,94,0.00,,SKC,0.01,0.00,VWS V14.01,2013-01-13 03:42:00,
2013-01-12 22:43:00,59.5,57.8,30.10,ENE,77,2.0,4.0,94,0.00,,SKC,0.01,0.00,VWS V14.01,2013-01-13 03:43:00,
2013-01-12 22:45:00,59.5,57.8,30.10,ENE,77,0.0,4.0,94,0.00,,SKC,0.01,0.00,VWS V14.01,2013-01-13 03:45:00,
2013-01-12 22:47:00,59.4,57.7,30.10,ENE,76,3.0,4.0,94,0.00,,SKC,0.01,0.00,VWS V14.01,2013-01-13 03:47:00,
2013-01-12 22:48:00,59.4,57.7,30.10,ENE,59,2.0,4.0,94,0.00,,SKC,0.01,0.00,VWS V14.01,2013-01-13 03:48:00,
2013-01-12 22:50:00,59.3,57.6,30.10,NE,55,1.0,4.0,94,0.00,,SKC,0.01,0.00,VWS V14.01,2013-01-13 03:50:00,
2013-01-12 22:52:00,59.3,57.6,30.10,NE,51,0.0,4.0,94,0.00,,SKC,0.01,0.00,VWS V14.01,2013-01-13 03:52:00,
2013-01-12 22:53:00,59.3,57.6,30.10,NE,55,1.0,4.0,94,0.00,,SKC,0.01,0.00,VWS V14.01,2013-01-13 03:53:00,
2013-01-12 22:55:00,59.2,57.2,30.10,NE,54,1.0,4.0,93,0.00,,SKC,0.01,0.00,VWS V14.01,2013-01-13 03:55:00,
2013-01-12 22:57:00,59.2,57.5,30.10,NE,54,1.0,4.0,94,0.00,,SKC,0.01,0.00,VWS V14.01,2013-01-13 03:57:00,
2013-01-12 22:58:00,59.2,57.5,30.10,NE,55,1.0,4.0,94,0.00,,SKC,0.01,0.00,VWS V14.01,2013-01-13 03:58:00,
2013-01-12 23:00:00,59.1,57.4,30.10,NE,55,1.0,4.0,94,0.00,,SKC,0.01,0.00,VWS V14.01,2013-01-13 04:00:00,
2013-01-12 23:02:00,59.1,57.4,30.10,NE,54,2.0,2.0,94,0.00,,SKC,0.01,0.00,VWS V14.01,2013-01-13 04:02:00,
2013-01-12 23:03:00,59.1,57.4,30.10,NE,55,1.0,3.0,94,0.00,,SKC,0.01,0.00,VWS V14.01,2013-01-13 04:03:00,
2013-01-12 23:05:00,59.0,57.3,30.10,NE,54,1.0,3.0,94,0.00,,SKC,0.01,0.00,VWS V14.01,2013-01-13 04:05:00,
2013-01-12 23:07:00,59.0,57.3,30.10,NE,54,2.0,3.0,94,0.00,,SKC,0.01,0.00,VWS V14.01,2013-01-13 04:07:00,
2013-01-12 23:08:00,59.0,57.3,30.10,NE,54,0.0,3.0,94,0.00,,SKC,0.01,0.00,VWS V14.01,2013-01-13 04:08:00,
2013-01-12 23:09:00,59.0,57.3,30.10,NE,55,1.0,3.0,94,0.00,,SKC,0.01,0.00,VWS V14.01,2013-01-13 04:09:00,
2013-01-12 23:11:00,58.9,57.2,30.10,NE,54,2.0,3.0,94,0.00,,SKC,0.01,0.00,VWS V14.01,2013-01-13 04:11:00,
2013-01-12 23:12:00,58.9,57.2,30.10,NE,54,1.0,3.0,94,0.00,,SKC,0.01,0.00,VWS V14.01,2013-01-13 04:12:00,
2013-01-12 23:13:00,58.9,57.2,30.10,NE,54,2.0,3.0,94,0.00,,SKC,0.01,0.00,VWS V14.01,2013-01-13 04:13:00,
2013-01-12 23:16:00,58.8,57.1,30.10,NE,55,0.0,3.0,94,0.00,,SKC,0.01,0.00,VWS V14.01,2013-01-13 04:16:00,
2013-01-12 23:17:00,58.8,57.1,30.10,NE,54,0.0,3.0,94,0.00,,SKC,0.01,0.00,VWS V14.01,2013-01-13 04:17:00,
2013-01-12 23:18:00,58.8,57.1,30.10,NE,54,2.0,3.0,94,0.00,,SKC,0.01,0.00,VWS V14.01,2013-01-13 04:18:00,
2013-01-12 23:19:00,58.8,57.1,30.10,NE,55,3.0,3.0,94,0.00,,SKC,0.01,0.00,VWS V14.01,2013-01-13 04:19:00,
2013-01-12 23:21:00,58.8,57.1,30.10,NE,54,1.0,3.0,94,0.00,,SKC,0.01,0.00,VWS V14.01,2013-01-13 04:21:00,
2013-01-12 23:22:00,58.8,57.1,30.10,NE,54,1.0,3.0,94,0.00,,SKC,0.01,0.00,VWS V14.01,2013-01-13 04:22:00,
2013-01-12 23:23:00,58.8,57.4,30.10,NE,55,1.0,3.0,95,0.00,,SKC,0.01,0.00,VWS V14.01,2013-01-13 04:23:00,
2013-01-12 23:24:00,58.8,57.4,30.10,NE,54,1.0,3.0,95,0.00,,SKC,0.01,0.00,VWS V14.01,2013-01-13 04:24:00,
2013-01-12 23:26:00,58.8,57.1,30.10,NE,54,0.0,3.0,94,0.00,,SKC,0.01,0.00,VWS V14.01,2013-01-13 04:26:00,
2013-01-12 23:28:00,58.8,57.1,30.10,NE,54,2.0,3.0,94,0.00,,SKC,0.01,0.00,VWS V14.01,2013-01-13 04:28:00,
2013-01-12 23:29:00,58.8,57.1,30.10,NE,54,1.0,3.0,94,0.00,,SKC,0.01,0.00,VWS V14.01,2013-01-13 04:29:00,
2013-01-12 23:31:00,58.8,57.4,30.10,NE,55,1.0,1.0,95,0.00,,SKC,0.01,0.00,VWS V14.01,2013-01-13 04:31:00,
2013-01-12 23:33:00,58.8,57.4,30.10,NE,54,0.0,1.0,95,0.00,,SKC,0.01,0.00,VWS V14.01,2013-01-13 04:33:00,
2013-01-12 23:34:00,58.8,57.4,30.10,NE,54,0.0,1.0,95,0.00,,SKC,0.01,0.00,VWS V14.01,2013-01-13 04:34:00,
2013-01-12 23:36:00,58.7,57.3,30.10,NE,54,1.0,2.0,95,0.00,,SKC,0.01,0.00,VWS V14.01,2013-01-13 04:36:00,
2013-01-12 23:38:00,58.7,57.0,30.10,NE,54,1.0,2.0,94,0.00,,SKC,0.01,0.00,VWS V14.01,2013-01-13 04:38:00,
2013-01-12 23:39:00,58.7,57.0,30.10,NE,54,1.0,2.0,94,0.00,,SKC,0.01,0.00,VWS V14.01,2013-01-13 04:39:00,
2013-01-12 23:41:00,58.6,57.2,30.10,NE,54,2.0,2.0,95,0.00,,SKC,0.01,0.00,VWS V14.01,2013-01-13 04:41:00,
2013-01-12 23:43:00,58.6,57.2,30.10,NE,54,0.0,2.0,95,0.00,,SKC,0.01,0.00,VWS V14.01,2013-01-13 04:43:00,
2013-01-12 23:44:00,58.6,57.2,30.10,NE,54,0.0,2.0,95,0.00,,SKC,0.01,0.00,VWS V14.01,2013-01-13 04:44:00,
2013-01-12 23:46:00,58.6,57.2,30.10,NE,54,0.0,2.0,95,0.00,,SKC,0.01,0.00,VWS V14.01,2013-01-13 04:46:00,
2013-01-12 23:48:00,58.6,57.2,30.10,NE,54,0.0,2.0,95,0.00,,SKC,0.01,0.00,VWS V14.01,2013-01-13 04:48:00,
2013-01-12 23:49:00,58.6,57.2,30.10,NE,54,0.0,2.0,95,0.00,,SKC,0.01,0.00,VWS V14.01,2013-01-13 04:49:00,
2013-01-12 23:50:00,58.6,57.2,30.10,NE,54,1.0,2.0,95,0.00,,SKC,0.01,0.00,VWS V14.01,2013-01-13 04:50:00,
2013-01-12 23:51:00,58.6,57.2,30.10,NE,54,1.0,2.0,95,0.00,,SKC,0.01,0.00,VWS V14.01,2013-01-13 04:51:00,
2013-01-12 23:53:00,58.6,57.2,30.10,NE,54,1.0,2.0,95,0.00,,SKC,0.01,0.00,VWS V14.01,2013-01-13 04:53:00,
2013-01-12 23:54:00,58.6,57.2,30.10,NE,54,0.0,2.0,95,0.00,,SKC,0.01,0.00,VWS V14.01,2013-01-13 04:54:00,
2013-01-12 23:55:00,58.6,57.2,30.10,NE,55,2.0,3.0,95,0.00,,SKC,0.01,0.00,VWS V14.01,2013-01-13 04:55:00,
2013-01-12 23:56:00,58.6,57.2,30.10,NE,55,2.0,3.0,95,0.00,,SKC,0.01,0.00,VWS V14.01,2013-01-13 04:56:00,
2013-01-12 23:58:00,58.6,57.2,30.10,NE,55,0.0,3.0,95,0.00,,SKC,0.01,0.00,VWS V14.01,2013-01-13 04:58:00,
2013-01-12 23:59:00,58.6,57.2,30.10,NE,55,0.0,3.0,95,0.00,,SKC,0.01,0.00,VWS V14.01,2013-01-13 04:59:00,